| time (UTC) | temp C | wind direction | speed KPH | gust KPH | rain 1hr cm | rain 24hr cm | rain mn cm | humidity % | barometer mb |
| 20260506121231 | 10 | 241 | 8.0 | 19.3 | 0.00 | 0.00 | 0.00 | 62 | 814.2 |
| 20260506121009 | 10 | 238 | 8.0 | 16.1 | 0.00 | 0.00 | 0.00 | 64 | 814.2 |
| 20260506120529 | 10 | 241 | 16.1 | 25.7 | 0.00 | 0.00 | 0.00 | 62 | 813.9 |
| 20260506120422 | 11 | 205 | 9.7 | 19.3 | 0.00 | 0.00 | 0.00 | 62 | 814.1 |
| 20260506120311 | 11 | 240 | 9.7 | 16.1 | 0.00 | 0.00 | 0.00 | 62 | 814.1 |
| 20260506120052 | 11 | 234 | 8.0 | 19.3 | 0.00 | 0.00 | 0.00 | 61 | 813.9 |
| 20260506115941 | 11 | 236 | 6.4 | 12.9 | 0.00 | 0.00 | 0.00 | 60 | 813.9 |
| 20260506115829 | 12 | 251 | 16.1 | 30.6 | 0.00 | 0.00 | 0.00 | 58 | 813.9 |
| 20260506115719 | 12 | 233 | 9.7 | 16.1 | 0.00 | 0.00 | 0.00 | 58 | 814.1 |
| 20260506115612 | 12 | 230 | 9.7 | 20.9 | 0.00 | 0.00 | 0.00 | 57 | 814.1 |
| 20260506115459 | 12 | 227 | 12.9 | 24.1 | 0.00 | 0.00 | 0.00 | 57 | 813.8 |
| 20260506115349 | 12 | 247 | 11.3 | 24.1 | 0.00 | 0.00 | 0.00 | 58 | 813.8 |
| 20260506115241 | 12 | 251 | 9.7 | 19.3 | 0.00 | 0.00 | 0.00 | 59 | 814.1 |
| 20260506115134 | 12 | 239 | 12.9 | 24.1 | 0.00 | 0.00 | 0.00 | 60 | 813.9 |
| 20260506115019 | 11 | 238 | 16.1 | 24.1 | 0.00 | 0.00 | 0.00 | 60 | 814.1 |
| 20260506114649 | 11 | 240 | 12.9 | 25.7 | 0.00 | 0.00 | 0.00 | 60 | 814.1 |
| 20260506114539 | 11 | 245 | 8.0 | 16.1 | 0.00 | 0.00 | 0.00 | 61 | 813.9 |
| 20260506114429 | 11 | 251 | 11.3 | 24.1 | 0.00 | 0.00 | 0.00 | 60 | 813.9 |
| 20260506114319 | 11 | 258 | 16.1 | 25.7 | 0.00 | 0.00 | 0.00 | 63 | 814.1 |
| 20260506114209 | 11 | 252 | 14.5 | 32.2 | 0.00 | 0.00 | 0.00 | 64 | 814.1 |
| 20260506113732 | 10 | 228 | 12.9 | 22.5 | 0.00 | 0.00 | 0.00 | 63 | 814.1 |
| 20260506113359 | 11 | 239 | 14.5 | 24.1 | 0.00 | 0.00 | 0.00 | 62 | 814.1 |
| 20260506113249 | 11 | 253 | 16.1 | 25.7 | 0.00 | 0.00 | 0.00 | 60 | 814.1 |
| 20260506113029 | 12 | 270 | 12.9 | 25.7 | 0.00 | 0.00 | 0.00 | 62 | 814.2 |
| 20260506112919 | 12 | 228 | 6.4 | 17.7 | 0.00 | 0.00 | 0.00 | 59 | 814.2 |
| 20260506112549 | 12 | 217 | 11.3 | 16.1 | 0.00 | 0.00 | 0.00 | 59 | 814.2 |
| 20260506112439 | 12 | 243 | 12.9 | 24.1 | 0.00 | 0.00 | 0.00 | 59 | 814.2 |
| 20260506112219 | 12 | 272 | 12.9 | 20.9 | 0.00 | 0.00 | 0.00 | 61 | 814.2 |
| 20260506112109 | 12 | 249 | 9.7 | 19.3 | 0.00 | 0.00 | 0.00 | 62 | 814.2 |
| 20260506111959 | 12 | 267 | 8.0 | 22.5 | 0.00 | 0.00 | 0.00 | 62 | 814.2 |
| 20260506111849 | 12 | 290 | 6.4 | 16.1 | 0.00 | 0.00 | 0.00 | 60 | 814.2 |
| 20260506111739 | 12 | 273 | 11.3 | 19.3 | 0.00 | 0.00 | 0.00 | 62 | 814.2 |
| 20260506111629 | 12 | 247 | 12.9 | 22.5 | 0.00 | 0.00 | 0.00 | 61 | 814.2 |
| 20260506111519 | 12 | 261 | 12.9 | 25.7 | 0.00 | 0.00 | 0.00 | 62 | 814.2 |
| 20260506111409 | 12 | 236 | 11.3 | 22.5 | 0.00 | 0.00 | 0.00 | 59 | 814.2 |
| 20260506111259 | 12 | 243 | 8.0 | 17.7 | 0.00 | 0.00 | 0.00 | 61 | 814.2 |
| 20260506111149 | 12 | 259 | 11.3 | 16.1 | 0.00 | 0.00 | 0.00 | 60 | 814.2 |
| 20260506111039 | 12 | 230 | 8.0 | 20.9 | 0.00 | 0.00 | 0.00 | 61 | 814.2 |
| 20260506110929 | 12 | 233 | 8.0 | 19.3 | 0.00 | 0.00 | 0.00 | 63 | 814.2 |
| 20260506110819 | 12 | 260 | 11.3 | 22.5 | 0.00 | 0.00 | 0.00 | 62 | 814.2 |
| 20260506110709 | 12 | 276 | 12.9 | 19.3 | 0.00 | 0.00 | 0.00 | 59 | 814.2 |
| 20260506110559 | 12 | 266 | 12.9 | 20.9 | 0.00 | 0.00 | 0.00 | 62 | 814.2 |
| 20260506110449 | 12 | 262 | 6.4 | 12.9 | 0.00 | 0.00 | 0.00 | 63 | 814.2 |
| 20260506110339 | 12 | 239 | 11.3 | 20.9 | 0.00 | 0.00 | 0.00 | 62 | 814.2 |
| 20260506110229 | 12 | 256 | 9.7 | 24.1 | 0.00 | 0.00 | 0.00 | 63 | 814.2 |
| 20260506110016 | 12 | 241 | 11.3 | 25.7 | 0.00 | 0.00 | 0.00 | 62 | 814.2 |
| 20260506105858 | 12 | 279 | 11.3 | 25.7 | 0.00 | 0.00 | 0.00 | 62 | 814.2 |
| 20260506105642 | 12 | 254 | 12.9 | 24.1 | 0.00 | 0.00 | 0.00 | 62 | 814.2 |
| 20260506105529 | 12 | 264 | 6.4 | 9.7 | 0.00 | 0.00 | 0.00 | 64 | 814.2 |
| 20260506105418 | 12 | 316 | 8.0 | 16.1 | 0.00 | 0.00 | 0.00 | 65 | 814.2 |
| 20260506105309 | 12 | 62 | 6.4 | 24.1 | 0.00 | 0.00 | 0.00 | 65 | 814.2 |
| 20260506104939 | 12 | 216 | 12.9 | 20.9 | 0.00 | 0.00 | 0.00 | 63 | 814.2 |
| 20260506104719 | 12 | 288 | 8.0 | 14.5 | 0.00 | 0.00 | 0.00 | 66 | 814.2 |
| 20260506104459 | 12 | 253 | 8.0 | 17.7 | 0.00 | 0.00 | 0.00 | 66 | 814.2 |
| 20260506104238 | 12 | 286 | 9.7 | 20.9 | 0.00 | 0.00 | 0.00 | 65 | 814.2 |
| 20260506104018 | 11 | 276 | 6.4 | 16.1 | 0.00 | 0.00 | 0.00 | 72 | 814.2 |
| 20260506103759 | 11 | 320 | 4.8 | 12.9 | 0.00 | 0.00 | 0.00 | 69 | 814.3 |
| 20260506103539 | 10 | 220 | 3.2 | 6.4 | 0.00 | 0.00 | 0.00 | 71 | 814.3 |
| 20260506103428 | 10 | 206 | 4.8 | 11.3 | 0.00 | 0.00 | 0.00 | 71 | 814.2 |
| 20260506103318 | 11 | 230 | 4.8 | 11.3 | 0.00 | 0.00 | 0.00 | 68 | 814.2 |
| 20260506103209 | 11 | 239 | 9.7 | 17.7 | 0.00 | 0.00 | 0.00 | 70 | 814.3 |
| 20260506103102 | 11 | 232 | 6.4 | 12.9 | 0.00 | 0.00 | 0.00 | 70 | 814.3 |
| 20260506102839 | 10 | 277 | 6.4 | 12.9 | 0.00 | 0.00 | 0.00 | 72 | 814.3 |
| 20260506102729 | 10 | 90 | 3.2 | 9.7 | 0.00 | 0.00 | 0.00 | 72 | 814.3 |
| 20260506102618 | 10 | 181 | 1.6 | 6.4 | 0.00 | 0.00 | 0.00 | 72 | 814.3 |
| 20260506102358 | 10 | 272 | 3.2 | 8.0 | 0.00 | 0.00 | 0.00 | 72 | 814.3 |
| 20260506102248 | 10 | 283 | 3.2 | 6.4 | 0.00 | 0.00 | 0.00 | 72 | 814.3 |
| 20260506102028 | 10 | 195 | 3.2 | 6.4 | 0.00 | 0.00 | 0.00 | 72 | 814.3 |
| 20260506101918 | 10 | 195 | 4.8 | 9.7 | 0.00 | 0.00 | 0.00 | 72 | 814.2 |
| 20260506101808 | 10 | 222 | 6.4 | 11.3 | 0.00 | 0.00 | 0.00 | 72 | 814.3 |
| 20260506101658 | 10 | 220 | 6.4 | 9.7 | 0.00 | 0.00 | 0.00 | 72 | 814.3 |
| 20260506101549 | 10 | 258 | 8.0 | 12.9 | 0.00 | 0.00 | 0.00 | 71 | 814.3 |
| 20260506101438 | 10 | 258 | 6.4 | 11.3 | 0.00 | 0.00 | 0.00 | 71 | 814.3 |
| 20260506101329 | 10 | 287 | 4.8 | 9.7 | 0.00 | 0.00 | 0.00 | 72 | 814.3 |
| 20260506101219 | 10 | 138 | 1.6 | 6.4 | 0.00 | 0.00 | 0.00 | 72 | 814.3 |
| 20260506101109 | 10 | 223 | 3.2 | 6.4 | 0.00 | 0.00 | 0.00 | 72 | 814.3 |
| 20260506100958 | 10 | 215 | 3.2 | 8.0 | 0.00 | 0.00 | 0.00 | 71 | 814.3 |
| 20260506100848 | 10 | 197 | 3.2 | 3.2 | 0.00 | 0.00 | 0.00 | 71 | 814.2 |
| 20260506100628 | 10 | 212 | 3.2 | 6.4 | 0.00 | 0.00 | 0.00 | 68 | 814.3 |
| 20260506100519 | 11 | 191 | 4.8 | 6.4 | 0.00 | 0.00 | 0.00 | 69 | 814.3 |
| 20260506100408 | 11 | 204 | 4.8 | 9.7 | 0.00 | 0.00 | 0.00 | 67 | 814.3 |
| 20260506100258 | 11 | 212 | 6.4 | 9.7 | 0.00 | 0.00 | 0.00 | 69 | 814.3 |
| 20260506100150 | 11 | 245 | 6.4 | 9.7 | 0.00 | 0.00 | 0.00 | 70 | 814.3 |
| 20260506095930 | 11 | 267 | 6.4 | 11.3 | 0.00 | 0.00 | 0.00 | 72 | 814.3 |
| 20260506095820 | 10 | 271 | 6.4 | 12.9 | 0.00 | 0.00 | 0.00 | 72 | 814.3 |
| 20260506095708 | 10 | 214 | 8.0 | 12.9 | 0.00 | 0.00 | 0.00 | 72 | 814.3 |
| 20260506095455 | 10 | 215 | 8.0 | 16.1 | 0.00 | 0.00 | 0.00 | 69 | 814.3 |
| 20260506095235 | 10 | 282 | 4.8 | 14.5 | 0.00 | 0.00 | 0.00 | 70 | 814.3 |
| 20260506095119 | 11 | 222 | 4.8 | 11.3 | 0.00 | 0.00 | 0.00 | 69 | 814.3 |
| 20260506095009 | 11 | 241 | 9.7 | 19.3 | 0.00 | 0.00 | 0.00 | 69 | 814.3 |
| 20260506094859 | 11 | 247 | 12.9 | 20.9 | 0.00 | 0.00 | 0.00 | 67 | 814.3 |
| 20260506094749 | 11 | 248 | 11.3 | 17.7 | 0.00 | 0.00 | 0.00 | 68 | 814.3 |
| 20260506094528 | 12 | 216 | 9.7 | 14.5 | 0.00 | 0.00 | 0.00 | 64 | 814.3 |
| 20260506094419 | 12 | 244 | 8.0 | 16.1 | 0.00 | 0.00 | 0.00 | 65 | 814.3 |
| 20260506094308 | 12 | 245 | 6.4 | 12.9 | 0.00 | 0.00 | 0.00 | 65 | 814.3 |
| 20260506094159 | 12 | 270 | 6.4 | 17.7 | 0.00 | 0.00 | 0.00 | 64 | 814.3 |
| 20260506094048 | 12 | 301 | 8.0 | 16.1 | 0.00 | 0.00 | 0.00 | 65 | 814.3 |
| 20260506093938 | 12 | 256 | 6.4 | 11.3 | 0.00 | 0.00 | 0.00 | 68 | 814.3 |
| 20260506093828 | 11 | 298 | 6.4 | 14.5 | 0.00 | 0.00 | 0.00 | 68 | 814.3 |
| 20260506093719 | 11 | 241 | 6.4 | 11.3 | 0.00 | 0.00 | 0.00 | 66 | 814.3 |
| 20260506093609 | 11 | 240 | 3.2 | 9.7 | 0.00 | 0.00 | 0.00 | 63 | 814.3 |
| 20260506093348 | 11 | 245 | 4.8 | 11.3 | 0.00 | 0.00 | 0.00 | 66 | 814.3 |
| 20260506093239 | 11 | 305 | 4.8 | 12.9 | 0.00 | 0.00 | 0.00 | 68 | 814.3 |
| 20260506093128 | 11 | 233 | 4.8 | 20.9 | 0.00 | 0.00 | 0.00 | 66 | 814.3 |
| 20260506093019 | 11 | 174 | 3.2 | 9.7 | 0.00 | 0.00 | 0.00 | 66 | 814.3 |
| 20260506092759 | 10 | 211 | 4.8 | 11.3 | 0.00 | 0.00 | 0.00 | 74 | 814.3 |
| 20260506092648 | 10 | 203 | 4.8 | 9.7 | 0.00 | 0.00 | 0.00 | 74 | 814.5 |
| 20260506092538 | 10 | 229 | 6.4 | 11.3 | 0.00 | 0.00 | 0.00 | 74 | 814.3 |
| 20260506092429 | 9 | 210 | 6.4 | 9.7 | 0.00 | 0.00 | 0.00 | 77 | 814.3 |
| 20260506092319 | 9 | 205 | 6.4 | 9.7 | 0.00 | 0.00 | 0.00 | 76 | 814.3 |
| 20260506092208 | 8 | 186 | 8.0 | 9.7 | 0.00 | 0.00 | 0.00 | 78 | 814.3 |
| 20260506092059 | 8 | 173 | 8.0 | 11.3 | 0.00 | 0.00 | 0.00 | 78 | 814.3 |
| 20260506091838 | 8 | 177 | 8.0 | 8.0 | 0.00 | 0.00 | 0.00 | 76 | 814.5 |
| 20260506091728 | 9 | 185 | 8.0 | 9.7 | 0.00 | 0.00 | 0.00 | 77 | 814.3 |
| 20260506091618 | 9 | 198 | 4.8 | 8.0 | 0.00 | 0.00 | 0.00 | 76 | 814.3 |
| 20260506091508 | 9 | 193 | 4.8 | 8.0 | 0.00 | 0.00 | 0.00 | 76 | 814.3 |
| 20260506091358 | 9 | 214 | 6.4 | 11.3 | 0.00 | 0.00 | 0.00 | 76 | 814.3 |
| 20260506091248 | 9 | 225 | 3.2 | 12.9 | 0.00 | 0.00 | 0.00 | 76 | 814.3 |
| 20260506091029 | 9 | 236 | 8.0 | 11.3 | 0.00 | 0.00 | 0.00 | 75 | 814.3 |
| 20260506090918 | 9 | 243 | 8.0 | 11.3 | 0.00 | 0.00 | 0.00 | 76 | 814.3 |
| 20260506090808 | 9 | 236 | 6.4 | 9.7 | 0.00 | 0.00 | 0.00 | 75 | 814.3 |
| 20260506090658 | 9 | 248 | 6.4 | 9.7 | 0.00 | 0.00 | 0.00 | 75 | 814.3 |
| 20260506090438 | 9 | 267 | 4.8 | 6.4 | 0.00 | 0.00 | 0.00 | 75 | 814.3 |
| 20260506090329 | 9 | 245 | 1.6 | 14.5 | 0.00 | 0.00 | 0.00 | 75 | 814.3 |
| 20260506090108 | 9 | 228 | 3.2 | 6.4 | 0.00 | 0.00 | 0.00 | 75 | 814.2 |
| 20260506085959 | 9 | 225 | 6.4 | 8.0 | 0.00 | 0.00 | 0.00 | 75 | 814.3 |
| 20260506085739 | 9 | 221 | 6.4 | 8.0 | 0.00 | 0.00 | 0.00 | 74 | 814.2 |
| 20260506085628 | 9 | 235 | 6.4 | 9.7 | 0.00 | 0.00 | 0.00 | 74 | 814.2 |
| 20260506085518 | 9 | 224 | 8.0 | 12.9 | 0.00 | 0.00 | 0.00 | 73 | 814.2 |
| 20260506085408 | 10 | 212 | 9.7 | 12.9 | 0.00 | 0.00 | 0.00 | 74 | 814.2 |
| 20260506085258 | 10 | 219 | 8.0 | 12.9 | 0.00 | 0.00 | 0.00 | 74 | 814.3 |
| 20260506085148 | 10 | 248 | 4.8 | 8.0 | 0.00 | 0.00 | 0.00 | 72 | 814.3 |
| 20260506085038 | 10 | 235 | 6.4 | 8.0 | 0.00 | 0.00 | 0.00 | 72 | 814.3 |
| 20260506084928 | 10 | 259 | 4.8 | 9.7 | 0.00 | 0.00 | 0.00 | 72 | 814.3 |
| 20260506084818 | 10 | 256 | 6.4 | 8.0 | 0.00 | 0.00 | 0.00 | 71 | 814.3 |
| 20260506084708 | 10 | 266 | 6.4 | 9.7 | 0.00 | 0.00 | 0.00 | 72 | 814.3 |
| 20260506084559 | 10 | 268 | 4.8 | 8.0 | 0.00 | 0.00 | 0.00 | 70 | 814.3 |
| 20260506084339 | 10 | 280 | 6.4 | 9.7 | 0.00 | 0.00 | 0.00 | 70 | 814.3 |
| 20260506084119 | 10 | 186 | 3.2 | 6.4 | 0.00 | 0.00 | 0.00 | 71 | 814.3 |
| 20260506084008 | 10 | 250 | 3.2 | 6.4 | 0.00 | 0.00 | 0.00 | 69 | 814.3 |
| 20260506083858 | 10 | 209 | 3.2 | 6.4 | 0.00 | 0.00 | 0.00 | 69 | 814.3 |
| 20260506083748 | 10 | 281 | 6.4 | 9.7 | 0.00 | 0.00 | 0.00 | 70 | 814.3 |
| 20260506083638 | 10 | 239 | 4.8 | 9.7 | 0.00 | 0.00 | 0.00 | 68 | 814.2 |
| 20260506083528 | 11 | 273 | 4.8 | 9.7 | 0.00 | 0.00 | 0.00 | 68 | 814.3 |
| 20260506083308 | 11 | 307 | 1.6 | 4.8 | 0.00 | 0.00 | 0.00 | 68 | 814.2 |
| 20260506083158 | 11 | 207 | 4.8 | 8.0 | 0.00 | 0.00 | 0.00 | 68 | 814.2 |
| 20260506083048 | 11 | 280 | 3.2 | 6.4 | 0.00 | 0.00 | 0.00 | 69 | 814.2 |
| 20260506082938 | 11 | 236 | 3.2 | 6.4 | 0.00 | 0.00 | 0.00 | 70 | 814.2 |
| 20260506082718 | 10 | 220 | 4.8 | 11.3 | 0.00 | 0.00 | 0.00 | 72 | 814.2 |
| 20260506082609 | 10 | 333 | 1.6 | 4.8 | 0.00 | 0.00 | 0.00 | 69 | 814.2 |
| 20260506082458 | 10 | 271 | 3.2 | 6.4 | 0.00 | 0.00 | 0.00 | 70 | 814.2 |
| 20260506082348 | 10 | 340 | 1.6 | 3.2 | 0.00 | 0.00 | 0.00 | 71 | 814.2 |
| 20260506082238 | 10 | 330 | 1.6 | 4.8 | 0.00 | 0.00 | 0.00 | 70 | 814.2 |
| 20260506082018 | 10 | 293 | 4.8 | 8.0 | 0.00 | 0.00 | 0.00 | 70 | 814.2 |
| 20260506081908 | 10 | 316 | 4.8 | 9.7 | 0.00 | 0.00 | 0.00 | 70 | 814.2 |
| 20260506081759 | 10 | 205 | 8.0 | 16.1 | 0.00 | 0.00 | 0.00 | 71 | 814.2 |
| 20260506081648 | 10 | 118 | 12.9 | 22.5 | 0.00 | 0.00 | 0.00 | 66 | 814.2 |
| 20260506081538 | 10 | 90 | 8.0 | 16.1 | 0.00 | 0.00 | 0.00 | 62 | 814.2 |
| 20260506081428 | 11 | 60 | 6.4 | 9.7 | 0.00 | 0.00 | 0.00 | 64 | 814.2 |
| 20260506081318 | 11 | 167 | 6.4 | 12.9 | 0.00 | 0.00 | 0.00 | 66 | 814.2 |
| 20260506081208 | 11 | 148 | 3.2 | 8.0 | 0.00 | 0.00 | 0.00 | 60 | 814.2 |
| 20260506080948 | 11 | 100 | 1.6 | 6.4 | 0.00 | 0.00 | 0.00 | 64 | 814.2 |
| 20260506080838 | 10 | 129 | 6.4 | 11.3 | 0.00 | 0.00 | 0.00 | 66 | 814.2 |
| 20260506080729 | 10 | 117 | 9.7 | 12.9 | 0.00 | 0.00 | 0.00 | 64 | 814.2 |
| 20260506080618 | 10 | 120 | 9.7 | 16.1 | 0.00 | 0.00 | 0.00 | 69 | 814.1 |
| 20260506080508 | 10 | 94 | 11.3 | 20.9 | 0.00 | 0.00 | 0.00 | 66 | 814.1 |
| 20260506080358 | 10 | 106 | 4.8 | 9.7 | 0.00 | 0.00 | 0.00 | 66 | 814.2 |
| 20260506080248 | 10 | 147 | 6.4 | 8.0 | 0.00 | 0.00 | 0.00 | 70 | 814.2 |
| 20260506080138 | 10 | 222 | 8.0 | 11.3 | 0.00 | 0.00 | 0.00 | 70 | 814.2 |
| 20260506073448 | 10 | 0 | 9.7 | 12.9 | 0.00 | 0.00 | 0.00 | 61 | 814.2 |
| 20260506073338 | 10 | 0 | 6.4 | 8.0 | 0.00 | 0.00 | 0.00 | 61 | 814.2 |
| 20260506073228 | 11 | 332 | 8.0 | 12.9 | 0.00 | 0.00 | 0.00 | 58 | 814.2 |
| 20260506073118 | 11 | 350 | 4.8 | 11.3 | 0.00 | 0.00 | 0.00 | 58 | 813.9 |
| 20260506072858 | 11 | 99 | 9.7 | 17.7 | 0.00 | 0.00 | 0.00 | 57 | 814.1 |
| 20260506072638 | 11 | 101 | 11.3 | 17.7 | 0.00 | 0.00 | 0.00 | 58 | 814.1 |
| 20260506072528 | 11 | 70 | 14.5 | 20.9 | 0.00 | 0.00 | 0.00 | 55 | 813.9 |
| 20260506072418 | 11 | 95 | 6.4 | 12.9 | 0.00 | 0.00 | 0.00 | 57 | 814.1 |
| 20260506072308 | 11 | 173 | 3.2 | 9.7 | 0.00 | 0.00 | 0.00 | 58 | 814.1 |
| 20260506072158 | 11 | 0 | 3.2 | 6.4 | 0.00 | 0.00 | 0.00 | 61 | 813.9 |
| 20260506071938 | 10 | 46 | 6.4 | 12.9 | 0.00 | 0.00 | 0.00 | 60 | 814.1 |
| 20260506071828 | 10 | 296 | 4.8 | 8.0 | 0.00 | 0.00 | 0.00 | 56 | 814.1 |
| 20260506071718 | 10 | 309 | 3.2 | 6.4 | 0.00 | 0.00 | 0.00 | 57 | 813.9 |
| 20260506071608 | 10 | 45 | 1.6 | 4.8 | 0.00 | 0.00 | 0.00 | 56 | 813.9 |
| 20260506071348 | 10 | 3 | 8.0 | 14.5 | 0.00 | 0.00 | 0.00 | 55 | 813.9 |
| 20260506071238 | 11 | 347 | 8.0 | 12.9 | 0.00 | 0.00 | 0.00 | 59 | 813.9 |
| 20260506071128 | 11 | 309 | 4.8 | 8.0 | 0.00 | 0.00 | 0.00 | 58 | 813.9 |
| 20260506071018 | 11 | 205 | 3.2 | 8.0 | 0.00 | 0.00 | 0.00 | 55 | 813.9 |
| 20260506070758 | 11 | 138 | 6.4 | 17.7 | 0.00 | 0.00 | 0.00 | 58 | 813.9 |
| 20260506070648 | 11 | 284 | 3.2 | 9.7 | 0.00 | 0.00 | 0.00 | 57 | 813.9 |
| 20260506070538 | 10 | 28 | 4.8 | 14.5 | 0.00 | 0.00 | 0.00 | 57 | 813.9 |
| 20260506070428 | 10 | 356 | 8.0 | 12.9 | 0.00 | 0.00 | 0.00 | 56 | 813.8 |
| 20260506070208 | 10 | 22 | 3.2 | 6.4 | 0.00 | 0.00 | 0.00 | 55 | 813.8 |
| 20260506062338 | 10 | 31 | 6.4 | 9.7 | 0.00 | 0.00 | 0.00 | 56 | 813.8 |
| 20260506062228 | 10 | 69 | 4.8 | 9.7 | 0.00 | 0.00 | 0.00 | 55 | 813.8 |
| 20260506062118 | 10 | 33 | 8.0 | 17.7 | 0.00 | 0.00 | 0.00 | 54 | 813.8 |
| 20260506062008 | 10 | 67 | 11.3 | 16.1 | 0.00 | 0.00 | 0.00 | 55 | 813.8 |
| 20260506061859 | 10 | 65 | 9.7 | 12.9 | 0.00 | 0.00 | 0.00 | 57 | 813.8 |
| 20260506061748 | 10 | 104 | 6.4 | 12.9 | 0.00 | 0.00 | 0.00 | 57 | 813.8 |
| 20260506061638 | 10 | 64 | 3.2 | 6.4 | 0.00 | 0.00 | 0.00 | 57 | 813.8 |
| 20260506061528 | 10 | 79 | 4.8 | 8.0 | 0.00 | 0.00 | 0.00 | 56 | 813.8 |
| 20260506061418 | 10 | 67 | 6.4 | 11.3 | 0.00 | 0.00 | 0.00 | 56 | 813.8 |
| 20260506061308 | 9 | 80 | 6.4 | 11.3 | 0.00 | 0.00 | 0.00 | 57 | 813.8 |
| 20260506061158 | 9 | 75 | 4.8 | 9.7 | 0.00 | 0.00 | 0.00 | 58 | 813.8 |
| 20260506061048 | 9 | 60 | 6.4 | 11.3 | 0.00 | 0.00 | 0.00 | 59 | 813.8 |
| 20260506060938 | 9 | 73 | 9.7 | 14.5 | 0.00 | 0.00 | 0.00 | 57 | 813.8 |
| 20260506060828 | 9 | 35 | 12.9 | 17.7 | 0.00 | 0.00 | 0.00 | 58 | 813.8 |
| 20260506060718 | 9 | 23 | 11.3 | 19.3 | 0.00 | 0.00 | 0.00 | 55 | 813.8 |
| 20260506060458 | 9 | 38 | 12.9 | 24.1 | 0.00 | 0.00 | 0.00 | 56 | 813.7 |
| 20260506060348 | 9 | 80 | 11.3 | 17.7 | 0.00 | 0.00 | 0.00 | 57 | 813.8 |
| 20260506060238 | 9 | 49 | 8.0 | 14.5 | 0.00 | 0.00 | 0.00 | 58 | 813.7 |
| 20260506060128 | 9 | 16 | 12.9 | 19.3 | 0.00 | 0.00 | 0.00 | 57 | 813.7 |
| 20260506051338 | 8 | 29 | 17.7 | 22.5 | 0.00 | 0.00 | 0.00 | 58 | 813.4 |
| 20260506051228 | 8 | 24 | 16.1 | 22.5 | 0.00 | 0.00 | 0.00 | 60 | 813.4 |
| 20260506051118 | 8 | 18 | 16.1 | 17.7 | 0.00 | 0.00 | 0.00 | 60 | 813.4 |
| 20260506050859 | 8 | 14 | 16.1 | 20.9 | 0.00 | 0.00 | 0.00 | 60 | 813.4 |
| 20260506050748 | 8 | 15 | 17.7 | 19.3 | 0.00 | 0.00 | 0.00 | 62 | 813.4 |
| 20260506050638 | 8 | 15 | 17.7 | 20.9 | 0.00 | 0.00 | 0.00 | 60 | 813.4 |
| 20260506050419 | 7 | 12 | 20.9 | 22.5 | 0.00 | 0.00 | 0.00 | 61 | 813.4 |
| 20260506050200 | 7 | 12 | 19.3 | 22.5 | 0.00 | 0.00 | 0.00 | 60 | 813.3 |
| 20260506045129 | 7 | 9 | 20.9 | 24.1 | 0.00 | 0.00 | 0.00 | 61 | 813.3 |
| 20260506045018 | 7 | 8 | 20.9 | 24.1 | 0.00 | 0.00 | 0.00 | 61 | 813.3 |
| 20260506044539 | 7 | 5 | 24.1 | 29.0 | 0.00 | 0.00 | 0.00 | 61 | 813.3 |
| 20260506044429 | 7 | 3 | 22.5 | 25.7 | 0.00 | 0.00 | 0.00 | 62 | 813.1 |
| 20260506044318 | 7 | 9 | 20.9 | 24.1 | 0.00 | 0.00 | 0.00 | 61 | 813.3 |
| 20260506044209 | 7 | 9 | 20.9 | 24.1 | 0.00 | 0.00 | 0.00 | 61 | 813.1 |
| 20260506041738 | 7 | 0 | 22.5 | 25.7 | 0.00 | 0.00 | 0.00 | 60 | 813.1 |
| 20260506041632 | 7 | 0 | 22.5 | 27.4 | 0.00 | 0.00 | 0.00 | 60 | 813.0 |
| 20260506041520 | 7 | 1 | 27.4 | 30.6 | 0.00 | 0.00 | 0.00 | 60 | 813.0 |
| 20260506041408 | 7 | 4 | 24.1 | 32.2 | 0.00 | 0.00 | 0.00 | 60 | 813.0 |
| 20260506041258 | 7 | 3 | 22.5 | 25.7 | 0.00 | 0.00 | 0.00 | 60 | 813.0 |
| 20260506041148 | 7 | 6 | 22.5 | 25.7 | 0.00 | 0.00 | 0.00 | 60 | 813.0 |
| 20260506041038 | 7 | 6 | 24.1 | 27.4 | 0.00 | 0.00 | 0.00 | 60 | 813.0 |
| 20260506040928 | 7 | 2 | 22.5 | 25.7 | 0.00 | 0.00 | 0.00 | 60 | 813.0 |
| 20260506040818 | 7 | 0 | 22.5 | 27.4 | 0.00 | 0.00 | 0.00 | 60 | 813.0 |
| 20260506040708 | 7 | 1 | 22.5 | 25.7 | 0.00 | 0.00 | 0.00 | 60 | 813.0 |
| 20260506040558 | 7 | 1 | 22.5 | 25.7 | 0.00 | 0.00 | 0.00 | 60 | 813.0 |
| 20260506040449 | 7 | 0 | 19.3 | 24.1 | 0.00 | 0.00 | 0.00 | 60 | 813.0 |
| 20260506040338 | 7 | 357 | 20.9 | 24.1 | 0.00 | 0.00 | 0.00 | 60 | 813.0 |
| 20260506040118 | 7 | 356 | 19.3 | 22.5 | 0.00 | 0.00 | 0.00 | 60 | 813.0 |
| 20260506040008 | 7 | 355 | 19.3 | 22.5 | 0.00 | 0.00 | 0.00 | 60 | 813.0 |
| 20260506035748 | 7 | 358 | 20.9 | 24.1 | 0.00 | 0.00 | 0.00 | 59 | 813.0 |
| 20260506035638 | 7 | 357 | 20.9 | 24.1 | 0.00 | 0.00 | 0.00 | 59 | 813.0 |
| 20260506035418 | 7 | 353 | 20.9 | 25.7 | 0.00 | 0.00 | 0.00 | 59 | 813.0 |
| 20260506035308 | 7 | 354 | 19.3 | 24.1 | 0.00 | 0.00 | 0.00 | 59 | 813.0 |
| 20260506035158 | 7 | 351 | 20.9 | 24.1 | 0.00 | 0.00 | 0.00 | 59 | 813.0 |
| 20260506035048 | 7 | 352 | 19.3 | 22.5 | 0.00 | 0.00 | 0.00 | 59 | 813.0 |
| 20260506034938 | 7 | 354 | 19.3 | 22.5 | 0.00 | 0.00 | 0.00 | 59 | 813.0 |
| 20260506034828 | 7 | 353 | 19.3 | 20.9 | 0.00 | 0.00 | 0.00 | 59 | 813.0 |
| 20260506034718 | 7 | 353 | 19.3 | 24.1 | 0.00 | 0.00 | 0.00 | 59 | 813.0 |
| 20260506034608 | 7 | 351 | 20.9 | 24.1 | 0.00 | 0.00 | 0.00 | 59 | 813.0 |
| 20260506034348 | 7 | 356 | 19.3 | 22.5 | 0.00 | 0.00 | 0.00 | 59 | 813.0 |
| 20260506034238 | 7 | 354 | 19.3 | 22.5 | 0.00 | 0.00 | 0.00 | 59 | 813.0 |
| 20260506034018 | 7 | 356 | 20.9 | 24.1 | 0.00 | 0.00 | 0.00 | 59 | 813.0 |
| 20260506033908 | 7 | 356 | 22.5 | 25.7 | 0.00 | 0.00 | 0.00 | 59 | 812.9 |
| 20260506033758 | 7 | 357 | 19.3 | 24.1 | 0.00 | 0.00 | 0.00 | 59 | 813.0 |
| 20260506033648 | 7 | 354 | 24.1 | 25.7 | 0.00 | 0.00 | 0.00 | 59 | 812.9 |
| 20260506033538 | 7 | 358 | 20.9 | 25.7 | 0.00 | 0.00 | 0.00 | 60 | 813.0 |
| 20260506033428 | 7 | 358 | 24.1 | 27.4 | 0.00 | 0.00 | 0.00 | 59 | 813.0 |
| 20260506033318 | 7 | 357 | 24.1 | 27.4 | 0.00 | 0.00 | 0.00 | 59 | 813.0 |
| 20260506033208 | 7 | 0 | 24.1 | 27.4 | 0.00 | 0.00 | 0.00 | 59 | 813.0 |
| 20260506033058 | 7 | 356 | 24.1 | 29.0 | 0.00 | 0.00 | 0.00 | 59 | 812.9 |
| 20260506032728 | 7 | 1 | 22.5 | 25.7 | 0.00 | 0.00 | 0.00 | 60 | 813.0 |
| 20260506032618 | 7 | 3 | 22.5 | 24.1 | 0.00 | 0.00 | 0.00 | 60 | 813.0 |
| 20260506032508 | 7 | 2 | 22.5 | 25.7 | 0.00 | 0.00 | 0.00 | 60 | 812.9 |
| 20260506032358 | 7 | 0 | 19.3 | 22.5 | 0.00 | 0.00 | 0.00 | 60 | 812.9 |
| 20260506032248 | 7 | 356 | 20.9 | 24.1 | 0.00 | 0.00 | 0.00 | 60 | 813.0 |
| 20260506032138 | 7 | 356 | 20.9 | 25.7 | 0.00 | 0.00 | 0.00 | 60 | 812.9 |
| 20260506032028 | 7 | 0 | 19.3 | 24.1 | 0.00 | 0.00 | 0.00 | 60 | 812.9 |
| 20260506031808 | 7 | 358 | 19.3 | 20.9 | 0.00 | 0.00 | 0.00 | 59 | 812.9 |
| 20260506031658 | 7 | 355 | 19.3 | 24.1 | 0.00 | 0.00 | 0.00 | 59 | 812.9 |
| 20260506031438 | 7 | 357 | 19.3 | 24.1 | 0.00 | 0.00 | 0.00 | 59 | 812.9 |
| 20260506031328 | 7 | 357 | 20.9 | 24.1 | 0.00 | 0.00 | 0.00 | 60 | 812.9 |
| 20260506031218 | 7 | 0 | 20.9 | 24.1 | 0.00 | 0.00 | 0.00 | 60 | 812.7 |
| 20260506030848 | 7 | 1 | 19.3 | 22.5 | 0.00 | 0.00 | 0.00 | 60 | 812.9 |
| 20260506030738 | 7 | 1 | 19.3 | 20.9 | 0.00 | 0.00 | 0.00 | 60 | 812.9 |
| 20260506030628 | 7 | 0 | 20.9 | 24.1 | 0.00 | 0.00 | 0.00 | 60 | 812.9 |
| 20260506030518 | 7 | 356 | 19.3 | 22.5 | 0.00 | 0.00 | 0.00 | 60 | 812.9 |
| 20260506030408 | 7 | 0 | 19.3 | 22.5 | 0.00 | 0.00 | 0.00 | 60 | 812.9 |
| 20260506030148 | 7 | 1 | 19.3 | 24.1 | 0.00 | 0.00 | 0.00 | 62 | 812.9 |
| 20260506025818 | 8 | 1 | 19.3 | 20.9 | 0.00 | 0.00 | 0.00 | 61 | 812.9 |
| 20260506025708 | 8 | 358 | 20.9 | 24.1 | 0.00 | 0.00 | 0.00 | 61 | 812.9 |
| 20260506025558 | 8 | 0 | 20.9 | 25.7 | 0.00 | 0.00 | 0.00 | 61 | 812.9 |
| 20260506025448 | 8 | 6 | 19.3 | 24.1 | 0.00 | 0.00 | 0.00 | 60 | 812.9 |
| 20260506025338 | 8 | 0 | 19.3 | 22.5 | 0.00 | 0.00 | 0.00 | 61 | 812.9 |
| 20260506025228 | 8 | 0 | 20.9 | 24.1 | 0.00 | 0.00 | 0.00 | 61 | 812.9 |
| 20260506025118 | 8 | 4 | 20.9 | 24.1 | 0.00 | 0.00 | 0.00 | 62 | 812.9 |
| 20260506025008 | 8 | 8 | 20.9 | 24.1 | 0.00 | 0.00 | 0.00 | 62 | 812.9 |
| 20260506024858 | 8 | 11 | 19.3 | 20.9 | 0.00 | 0.00 | 0.00 | 62 | 812.9 |
| 20260506024748 | 8 | 12 | 19.3 | 20.9 | 0.00 | 0.00 | 0.00 | 61 | 812.9 |
| 20260506024638 | 8 | 10 | 19.3 | 20.9 | 0.00 | 0.00 | 0.00 | 61 | 813.0 |
| 20260506024528 | 8 | 7 | 17.7 | 19.3 | 0.00 | 0.00 | 0.00 | 62 | 813.0 |
| 20260506024418 | 8 | 13 | 17.7 | 19.3 | 0.00 | 0.00 | 0.00 | 61 | 812.9 |
| 20260506024308 | 8 | 7 | 16.1 | 17.7 | 0.00 | 0.00 | 0.00 | 60 | 812.9 |
| 20260506024158 | 8 | 8 | 19.3 | 19.3 | 0.00 | 0.00 | 0.00 | 62 | 812.9 |
| 20260506024048 | 8 | 12 | 16.1 | 19.3 | 0.00 | 0.00 | 0.00 | 61 | 812.9 |
| 20260506023828 | 8 | 11 | 17.7 | 19.3 | 0.00 | 0.00 | 0.00 | 61 | 812.9 |
| 20260506023718 | 8 | 8 | 19.3 | 19.3 | 0.00 | 0.00 | 0.00 | 62 | 812.9 |
| 20260506023608 | 8 | 11 | 17.7 | 19.3 | 0.00 | 0.00 | 0.00 | 62 | 812.9 |
| 20260506023458 | 8 | 11 | 19.3 | 19.3 | 0.00 | 0.00 | 0.00 | 62 | 812.9 |
| 20260506023238 | 8 | 11 | 19.3 | 20.9 | 0.00 | 0.00 | 0.00 | 61 | 812.9 |
| 20260506023128 | 8 | 12 | 19.3 | 20.9 | 0.00 | 0.00 | 0.00 | 61 | 812.9 |
| 20260506023018 | 8 | 9 | 20.9 | 22.5 | 0.00 | 0.00 | 0.00 | 60 | 812.9 |
| 20260506022758 | 8 | 6 | 19.3 | 22.5 | 0.00 | 0.00 | 0.00 | 60 | 812.7 |
| 20260506022648 | 8 | 4 | 19.3 | 22.5 | 0.00 | 0.00 | 0.00 | 59 | 812.9 |
| 20260506022538 | 8 | 1 | 19.3 | 19.3 | 0.00 | 0.00 | 0.00 | 60 | 812.9 |
| 20260506022428 | 8 | 1 | 19.3 | 22.5 | 0.00 | 0.00 | 0.00 | 59 | 812.7 |
| 20260506022318 | 8 | 1 | 17.7 | 20.9 | 0.00 | 0.00 | 0.00 | 59 | 812.9 |
| 20260506022208 | 8 | 0 | 19.3 | 20.9 | 0.00 | 0.00 | 0.00 | 59 | 812.9 |
| 20260506022102 | 8 | 4 | 17.7 | 19.3 | 0.00 | 0.00 | 0.00 | 59 | 812.9 |
| 20260506021948 | 8 | 4 | 19.3 | 20.9 | 0.00 | 0.00 | 0.00 | 59 | 812.9 |
| 20260506021729 | 8 | 1 | 19.3 | 20.9 | 0.00 | 0.00 | 0.00 | 59 | 812.9 |
| 20260506021618 | 8 | 2 | 17.7 | 20.9 | 0.00 | 0.00 | 0.00 | 59 | 812.9 |
| 20260506021508 | 8 | 2 | 17.7 | 19.3 | 0.00 | 0.00 | 0.00 | 58 | 812.9 |
| 20260506021358 | 8 | 2 | 17.7 | 19.3 | 0.00 | 0.00 | 0.00 | 59 | 812.9 |
| 20260506021248 | 8 | 1 | 17.7 | 19.3 | 0.00 | 0.00 | 0.00 | 58 | 812.9 |
| 20260506021138 | 8 | 0 | 17.7 | 19.3 | 0.00 | 0.00 | 0.00 | 58 | 812.9 |
| 20260506021028 | 8 | 357 | 17.7 | 19.3 | 0.00 | 0.00 | 0.00 | 58 | 812.7 |
| 20260506020919 | 8 | 356 | 17.7 | 20.9 | 0.00 | 0.00 | 0.00 | 58 | 812.7 |
| 20260506020808 | 8 | 354 | 17.7 | 19.3 | 0.00 | 0.00 | 0.00 | 58 | 812.7 |
| 20260506020548 | 8 | 355 | 17.7 | 19.3 | 0.00 | 0.00 | 0.00 | 58 | 812.9 |
| 20260506020439 | 8 | 355 | 17.7 | 19.3 | 0.00 | 0.00 | 0.00 | 57 | 812.7 |
| 20260506020218 | 8 | 357 | 16.1 | 17.7 | 0.00 | 0.00 | 0.00 | 57 | 812.7 |
| 20260506020108 | 8 | 0 | 16.1 | 17.7 | 0.00 | 0.00 | 0.00 | 57 | 812.9 |
| 20260506015958 | 8 | 1 | 16.1 | 17.7 | 0.00 | 0.00 | 0.00 | 57 | 812.9 |
| 20260506015848 | 8 | 0 | 17.7 | 17.7 | 0.00 | 0.00 | 0.00 | 57 | 812.9 |
| 20260506015738 | 8 | 0 | 16.1 | 17.7 | 0.00 | 0.00 | 0.00 | 57 | 812.9 |
| 20260506015628 | 8 | 357 | 16.1 | 17.7 | 0.00 | 0.00 | 0.00 | 57 | 812.7 |
| 20260506015518 | 8 | 356 | 16.1 | 17.7 | 0.00 | 0.00 | 0.00 | 57 | 812.9 |
| 20260506015408 | 8 | 354 | 14.5 | 16.1 | 0.00 | 0.00 | 0.00 | 56 | 812.7 |
| 20260506015258 | 8 | 350 | 17.7 | 19.3 | 0.00 | 0.00 | 0.00 | 56 | 812.7 |
| 20260506015148 | 8 | 344 | 16.1 | 17.7 | 0.00 | 0.00 | 0.00 | 56 | 812.9 |
| 20260506014818 | 8 | 344 | 16.1 | 19.3 | 0.00 | 0.00 | 0.00 | 56 | 812.9 |
| 20260506014708 | 8 | 343 | 16.1 | 19.3 | 0.00 | 0.00 | 0.00 | 56 | 812.7 |
| 20260506014558 | 8 | 343 | 16.1 | 19.3 | 0.00 | 0.00 | 0.00 | 56 | 812.7 |
| 20260506014448 | 8 | 341 | 16.1 | 17.7 | 0.00 | 0.00 | 0.00 | 55 | 812.7 |
| 20260506014338 | 8 | 340 | 16.1 | 17.7 | 0.00 | 0.00 | 0.00 | 55 | 812.9 |
| 20260506014228 | 8 | 339 | 14.5 | 16.1 | 0.00 | 0.00 | 0.00 | 55 | 812.7 |
| 20260506014118 | 8 | 341 | 14.5 | 16.1 | 0.00 | 0.00 | 0.00 | 55 | 812.7 |
| 20260506014008 | 8 | 341 | 14.5 | 16.1 | 0.00 | 0.00 | 0.00 | 55 | 812.9 |
| 20260506013859 | 8 | 343 | 14.5 | 16.1 | 0.00 | 0.00 | 0.00 | 55 | 812.9 |
| 20260506013638 | 8 | 345 | 14.5 | 16.1 | 0.00 | 0.00 | 0.00 | 55 | 812.9 |
| 20260506013528 | 8 | 345 | 14.5 | 16.1 | 0.00 | 0.00 | 0.00 | 55 | 812.7 |
| 20260506013418 | 8 | 345 | 14.5 | 16.1 | 0.00 | 0.00 | 0.00 | 55 | 812.7 |
| 20260506013048 | 8 | 346 | 14.5 | 14.5 | 0.00 | 0.00 | 0.00 | 55 | 812.7 |
| 20260506012938 | 8 | 346 | 12.9 | 14.5 | 0.00 | 0.00 | 0.00 | 55 | 812.9 |
| 20260506012828 | 8 | 344 | 12.9 | 14.5 | 0.00 | 0.00 | 0.00 | 55 | 812.9 |
| 20260506012718 | 8 | 344 | 14.5 | 14.5 | 0.00 | 0.00 | 0.00 | 55 | 812.9 |
| 20260506012608 | 8 | 342 | 12.9 | 14.5 | 0.00 | 0.00 | 0.00 | 55 | 812.9 |
| 20260506012348 | 8 | 341 | 12.9 | 12.9 | 0.00 | 0.00 | 0.00 | 55 | 812.9 |
| 20260506012238 | 8 | 340 | 12.9 | 12.9 | 0.00 | 0.00 | 0.00 | 55 | 812.9 |
| 20260506012128 | 8 | 340 | 12.9 | 12.9 | 0.00 | 0.00 | 0.00 | 55 | 812.9 |
| 20260506012018 | 8 | 340 | 12.9 | 12.9 | 0.00 | 0.00 | 0.00 | 55 | 812.9 |
| 20260506011911 | 8 | 342 | 12.9 | 12.9 | 0.00 | 0.00 | 0.00 | 55 | 812.9 |
| 20260506011758 | 8 | 343 | 12.9 | 14.5 | 0.00 | 0.00 | 0.00 | 55 | 812.9 |
| 20260506011538 | 8 | 343 | 12.9 | 12.9 | 0.00 | 0.00 | 0.00 | 55 | 812.9 |
| 20260506011428 | 8 | 345 | 12.9 | 12.9 | 0.00 | 0.00 | 0.00 | 55 | 812.9 |
| 20260506011318 | 8 | 345 | 12.9 | 12.9 | 0.00 | 0.00 | 0.00 | 55 | 813.0 |
| 20260506011208 | 8 | 343 | 12.9 | 12.9 | 0.00 | 0.00 | 0.00 | 55 | 813.0 |
| 20260506011057 | 8 | 342 | 11.3 | 12.9 | 0.00 | 0.00 | 0.00 | 55 | 812.9 |
| 20260506010948 | 8 | 343 | 11.3 | 11.3 | 0.00 | 0.00 | 0.00 | 55 | 812.9 |
| 20260506010838 | 8 | 344 | 11.3 | 11.3 | 0.00 | 0.00 | 0.00 | 55 | 812.9 |
| 20260506010728 | 8 | 344 | 11.3 | 11.3 | 0.00 | 0.00 | 0.00 | 55 | 813.0 |
| 20260506010618 | 8 | 342 | 11.3 | 11.3 | 0.00 | 0.00 | 0.00 | 55 | 813.0 |
| 20260506010358 | 8 | 340 | 11.3 | 11.3 | 0.00 | 0.00 | 0.00 | 55 | 812.9 |
| 20260506010248 | 8 | 341 | 11.3 | 11.3 | 0.00 | 0.00 | 0.00 | 55 | 812.9 |
| 20260506010028 | 8 | 341 | 11.3 | 11.3 | 0.00 | 0.00 | 0.00 | 56 | 813.0 |
| 20260506005918 | 8 | 341 | 11.3 | 11.3 | 0.00 | 0.00 | 0.00 | 56 | 813.0 |
| 20260506005807 | 8 | 343 | 11.3 | 11.3 | 0.00 | 0.00 | 0.00 | 56 | 813.0 |
| 20260506005658 | 8 | 343 | 11.3 | 11.3 | 0.00 | 0.00 | 0.00 | 56 | 813.0 |
| 20260506005328 | 8 | 345 | 12.9 | 12.9 | 0.00 | 0.00 | 0.00 | 55 | 813.0 |
| 20260506005218 | 8 | 345 | 12.9 | 12.9 | 0.00 | 0.00 | 0.00 | 55 | 813.0 |
| 20260506005108 | 8 | 348 | 11.3 | 12.9 | 0.00 | 0.00 | 0.00 | 55 | 813.0 |
| 20260506004957 | 8 | 350 | 11.3 | 12.9 | 0.00 | 0.00 | 0.00 | 55 | 812.9 |
| 20260506004847 | 8 | 352 | 11.3 | 12.9 | 0.00 | 0.00 | 0.00 | 55 | 812.9 |
| 20260506004738 | 8 | 353 | 11.3 | 12.9 | 0.00 | 0.00 | 0.00 | 55 | 812.9 |
| 20260506004628 | 8 | 354 | 11.3 | 12.9 | 0.00 | 0.00 | 0.00 | 56 | 812.9 |
| 20260506004517 | 8 | 357 | 11.3 | 12.9 | 0.00 | 0.00 | 0.00 | 55 | 813.0 |
| 20260506004408 | 8 | 0 | 12.9 | 12.9 | 0.00 | 0.00 | 0.00 | 56 | 812.9 |
| 20260506004257 | 8 | 3 | 12.9 | 12.9 | 0.00 | 0.00 | 0.00 | 55 | 812.9 |
| 20260506004147 | 8 | 4 | 12.9 | 12.9 | 0.00 | 0.00 | 0.00 | 55 | 812.9 |
| 20260506004037 | 8 | 4 | 12.9 | 12.9 | 0.00 | 0.00 | 0.00 | 55 | 812.9 |
| 20260506003927 | 8 | 4 | 12.9 | 12.9 | 0.00 | 0.00 | 0.00 | 55 | 812.9 |
| 20260506003558 | 8 | 2 | 12.9 | 12.9 | 0.00 | 0.00 | 0.00 | 54 | 813.0 |
| 20260506003338 | 8 | 1 | 12.9 | 12.9 | 0.00 | 0.00 | 0.00 | 54 | 813.0 |
| 20260506003118 | 8 | 3 | 12.9 | 12.9 | 0.00 | 0.00 | 0.00 | 54 | 812.9 |
| 20260506003007 | 8 | 5 | 11.3 | 12.9 | 0.00 | 0.00 | 0.00 | 54 | 812.9 |
| 20260506002857 | 8 | 7 | 11.3 | 12.9 | 0.00 | 0.00 | 0.00 | 55 | 812.9 |
| 20260506002638 | 8 | 11 | 11.3 | 12.9 | 0.00 | 0.00 | 0.00 | 55 | 813.0 |
| 20260506002527 | 8 | 12 | 11.3 | 11.3 | 0.00 | 0.00 | 0.00 | 55 | 812.9 |
| 20260506002308 | 8 | 15 | 11.3 | 11.3 | 0.00 | 0.00 | 0.00 | 55 | 813.0 |
| 20260506002047 | 8 | 17 | 11.3 | 11.3 | 0.00 | 0.00 | 0.00 | 55 | 813.0 |
| 20260506001937 | 8 | 20 | 9.7 | 11.3 | 0.00 | 0.00 | 0.00 | 56 | 812.9 |
| 20260506001827 | 8 | 21 | 9.7 | 11.3 | 0.00 | 0.00 | 0.00 | 56 | 813.0 |
| 20260506001717 | 8 | 23 | 9.7 | 9.7 | 0.00 | 0.00 | 0.00 | 56 | 813.0 |
| 20260506001607 | 8 | 24 | 9.7 | 9.7 | 0.00 | 0.00 | 0.00 | 56 | 813.0 |
| 20260506001457 | 8 | 26 | 9.7 | 9.7 | 0.00 | 0.00 | 0.00 | 56 | 813.0 |
| 20260506001347 | 8 | 29 | 9.7 | 9.7 | 0.00 | 0.00 | 0.00 | 56 | 813.0 |
| 20260506001237 | 8 | 31 | 9.7 | 9.7 | 0.00 | 0.00 | 0.00 | 56 | 813.0 |
| 20260506001017 | 8 | 33 | 9.7 | 9.7 | 0.00 | 0.00 | 0.00 | 56 | 813.0 |
| 20260506000907 | 8 | 33 | 9.7 | 9.7 | 0.00 | 0.00 | 0.00 | 56 | 813.0 |
| 20260506000757 | 8 | 34 | 9.7 | 9.7 | 0.00 | 0.00 | 0.00 | 56 | 813.0 |
| 20260506000647 | 8 | 34 | 9.7 | 9.7 | 0.00 | 0.00 | 0.00 | 56 | 813.0 |
| 20260506000537 | 8 | 35 | 9.7 | 9.7 | 0.00 | 0.00 | 0.00 | 56 | 813.0 |
| 20260506000317 | 8 | 37 | 9.7 | 9.7 | 0.00 | 0.00 | 0.00 | 56 | 813.0 |
| 20260506000207 | 8 | 37 | 9.7 | 9.7 | 0.00 | 0.00 | 0.00 | 56 | 813.0 |
| 20260505235837 | 8 | 35 | 9.7 | 9.7 | 0.00 | 0.00 | 0.00 | 57 | 813.0 |
| 20260505235728 | 8 | 37 | 9.7 | 9.7 | 0.00 | 0.00 | 0.00 | 57 | 813.0 |
| 20260505235617 | 8 | 40 | 9.7 | 9.7 | 0.00 | 0.00 | 0.00 | 57 | 813.0 |
| 20260505235507 | 8 | 39 | 9.7 | 9.7 | 0.00 | 0.00 | 0.00 | 57 | 813.0 |
| 20260505235357 | 8 | 40 | 9.7 | 11.3 | 0.00 | 0.00 | 0.00 | 57 | 813.0 |
| 20260505235137 | 8 | 40 | 9.7 | 9.7 | 0.00 | 0.00 | 0.00 | 57 | 813.0 |
| 20260505235027 | 8 | 40 | 9.7 | 11.3 | 0.00 | 0.00 | 0.00 | 57 | 813.0 |
| 20260505234917 | 8 | 39 | 11.3 | 12.9 | 0.00 | 0.00 | 0.00 | 57 | 813.0 |
| 20260505234807 | 8 | 40 | 11.3 | 12.9 | 0.00 | 0.00 | 0.00 | 58 | 813.0 |
| 20260505234657 | 8 | 38 | 11.3 | 12.9 | 0.00 | 0.00 | 0.00 | 57 | 813.0 |
| 20260505234547 | 8 | 38 | 11.3 | 12.9 | 0.00 | 0.00 | 0.00 | 57 | 813.0 |
| 20260505234437 | 8 | 40 | 11.3 | 12.9 | 0.00 | 0.00 | 0.00 | 57 | 813.0 |
| 20260505234327 | 8 | 41 | 11.3 | 12.9 | 0.00 | 0.00 | 0.00 | 57 | 813.0 |
| 20260505234217 | 8 | 40 | 11.3 | 12.9 | 0.00 | 0.00 | 0.00 | 58 | 813.0 |
| 20260505234108 | 8 | 39 | 11.3 | 12.9 | 0.00 | 0.00 | 0.00 | 58 | 813.0 |
| 20260505233957 | 8 | 38 | 11.3 | 12.9 | 0.00 | 0.00 | 0.00 | 58 | 813.0 |
| 20260505233847 | 8 | 37 | 11.3 | 12.9 | 0.00 | 0.00 | 0.00 | 58 | 813.0 |
| 20260505233737 | 8 | 35 | 11.3 | 12.9 | 0.00 | 0.00 | 0.00 | 58 | 813.0 |
| 20260505233517 | 8 | 31 | 11.3 | 12.9 | 0.00 | 0.00 | 0.00 | 58 | 813.0 |
| 20260505233407 | 8 | 28 | 11.3 | 12.9 | 0.00 | 0.00 | 0.00 | 58 | 813.0 |
| 20260505233257 | 8 | 28 | 11.3 | 12.9 | 0.00 | 0.00 | 0.00 | 58 | 813.0 |
| 20260505233147 | 8 | 29 | 11.3 | 12.9 | 0.00 | 0.00 | 0.00 | 58 | 813.0 |
| 20260505233037 | 8 | 31 | 11.3 | 12.9 | 0.00 | 0.00 | 0.00 | 58 | 813.0 |
| 20260505232927 | 8 | 32 | 11.3 | 12.9 | 0.00 | 0.00 | 0.00 | 57 | 813.0 |
| 20260505232817 | 8 | 28 | 11.3 | 12.9 | 0.00 | 0.00 | 0.00 | 57 | 813.0 |
| 20260505232707 | 8 | 30 | 11.3 | 12.9 | 0.00 | 0.00 | 0.00 | 57 | 813.0 |
| 20260505232447 | 8 | 29 | 11.3 | 12.9 | 0.00 | 0.00 | 0.00 | 57 | 813.0 |
| 20260505232337 | 8 | 27 | 11.3 | 12.9 | 0.00 | 0.00 | 0.00 | 57 | 813.0 |
| 20260505232227 | 8 | 24 | 9.7 | 12.9 | 0.00 | 0.00 | 0.00 | 57 | 813.0 |
| 20260505232007 | 8 | 24 | 11.3 | 12.9 | 0.00 | 0.00 | 0.00 | 57 | 813.1 |
| 20260505231857 | 8 | 24 | 11.3 | 12.9 | 0.00 | 0.00 | 0.00 | 57 | 813.0 |
| 20260505231637 | 8 | 22 | 12.9 | 14.5 | 0.00 | 0.00 | 0.00 | 57 | 813.1 |
| 20260505231417 | 8 | 18 | 12.9 | 14.5 | 0.00 | 0.00 | 0.00 | 56 | 813.3 |
| 20260505231307 | 8 | 20 | 12.9 | 14.5 | 0.00 | 0.00 | 0.00 | 56 | 813.3 |
| 20260505231157 | 8 | 13 | 12.9 | 14.5 | 0.00 | 0.00 | 0.00 | 56 | 813.3 |
| 20260505231047 | 8 | 13 | 12.9 | 14.5 | 0.00 | 0.00 | 0.00 | 56 | 813.3 |
| 20260505230937 | 8 | 13 | 12.9 | 14.5 | 0.00 | 0.00 | 0.00 | 56 | 813.1 |
| 20260505230827 | 8 | 10 | 12.9 | 12.9 | 0.00 | 0.00 | 0.00 | 56 | 813.3 |
| 20260505230717 | 8 | 10 | 12.9 | 14.5 | 0.00 | 0.00 | 0.00 | 55 | 813.3 |
| 20260505230607 | 8 | 9 | 12.9 | 14.5 | 0.00 | 0.00 | 0.00 | 56 | 813.3 |
| 20260505230347 | 8 | 357 | 12.9 | 14.5 | 0.00 | 0.00 | 0.00 | 56 | 813.3 |
| 20260505230237 | 8 | 358 | 11.3 | 12.9 | 0.00 | 0.00 | 0.00 | 55 | 813.3 |
| 20260505225907 | 8 | 342 | 9.7 | 11.3 | 0.00 | 0.00 | 0.00 | 55 | 813.3 |
| 20260505225757 | 8 | 335 | 9.7 | 11.3 | 0.00 | 0.00 | 0.00 | 55 | 813.3 |
| 20260505225647 | 8 | 330 | 8.0 | 9.7 | 0.00 | 0.00 | 0.00 | 55 | 813.3 |
| 20260505225537 | 8 | 330 | 8.0 | 8.0 | 0.00 | 0.00 | 0.00 | 56 | 813.3 |
| 20260505225427 | 8 | 328 | 8.0 | 9.7 | 0.00 | 0.00 | 0.00 | 56 | 813.3 |
| 20260505225207 | 8 | 311 | 8.0 | 9.7 | 0.00 | 0.00 | 0.00 | 56 | 813.4 |
| 20260505225057 | 8 | 317 | 4.8 | 6.4 | 0.00 | 0.00 | 0.00 | 56 | 813.4 |
| 20260505224727 | 8 | 307 | 8.0 | 9.7 | 0.00 | 0.00 | 0.00 | 56 | 813.4 |
| 20260505224617 | 8 | 327 | 4.8 | 9.7 | 0.00 | 0.00 | 0.00 | 57 | 813.4 |
| 20260505224507 | 8 | 336 | 4.8 | 6.4 | 0.00 | 0.00 | 0.00 | 57 | 813.4 |
| 20260505224357 | 8 | 327 | 4.8 | 6.4 | 0.00 | 0.00 | 0.00 | 57 | 813.4 |
| 20260505224247 | 8 | 335 | 4.8 | 8.0 | 0.00 | 0.00 | 0.00 | 57 | 813.4 |
| 20260505224137 | 8 | 314 | 4.8 | 6.4 | 0.00 | 0.00 | 0.00 | 57 | 813.4 |
| 20260505224027 | 8 | 305 | 6.4 | 8.0 | 0.00 | 0.00 | 0.00 | 56 | 813.4 |
| 20260505223917 | 8 | 294 | 6.4 | 6.4 | 0.00 | 0.00 | 0.00 | 57 | 813.4 |
| 20260505223807 | 8 | 288 | 6.4 | 8.0 | 0.00 | 0.00 | 0.00 | 56 | 813.4 |
| 20260505223657 | 8 | 294 | 8.0 | 9.7 | 0.00 | 0.00 | 0.00 | 56 | 813.4 |
| 20260505223547 | 8 | 294 | 9.7 | 11.3 | 0.00 | 0.00 | 0.00 | 56 | 813.4 |
| 20260505223437 | 8 | 298 | 9.7 | 11.3 | 0.00 | 0.00 | 0.00 | 57 | 813.4 |
| 20260505223327 | 8 | 289 | 6.4 | 9.7 | 0.00 | 0.00 | 0.00 | 58 | 813.4 |
| 20260505223107 | 8 | 282 | 8.0 | 9.7 | 0.00 | 0.00 | 0.00 | 57 | 813.4 |
| 20260505222957 | 8 | 285 | 8.0 | 9.7 | 0.00 | 0.00 | 0.00 | 57 | 813.4 |
| 20260505222847 | 8 | 280 | 9.7 | 11.3 | 0.00 | 0.00 | 0.00 | 57 | 813.4 |
| 20260505222737 | 8 | 287 | 9.7 | 11.3 | 0.00 | 0.00 | 0.00 | 57 | 813.4 |
| 20260505222517 | 8 | 289 | 8.0 | 9.7 | 0.00 | 0.00 | 0.00 | 58 | 813.4 |
| 20260505222407 | 8 | 287 | 6.4 | 8.0 | 0.00 | 0.00 | 0.00 | 58 | 813.4 |
| 20260505222257 | 8 | 288 | 6.4 | 8.0 | 0.00 | 0.00 | 0.00 | 58 | 813.4 |
| 20260505222147 | 8 | 287 | 4.8 | 6.4 | 0.00 | 0.00 | 0.00 | 58 | 813.4 |
| 20260505222037 | 8 | 296 | 6.4 | 8.0 | 0.00 | 0.00 | 0.00 | 58 | 813.4 |
| 20260505221927 | 8 | 292 | 6.4 | 8.0 | 0.00 | 0.00 | 0.00 | 57 | 813.4 |
| 20260505221817 | 8 | 307 | 6.4 | 8.0 | 0.00 | 0.00 | 0.00 | 57 | 813.4 |
| 20260505221707 | 8 | 295 | 8.0 | 9.7 | 0.00 | 0.00 | 0.00 | 57 | 813.4 |
| 20260505221557 | 8 | 304 | 6.4 | 9.7 | 0.00 | 0.00 | 0.00 | 57 | 813.4 |
| 20260505221337 | 8 | 303 | 8.0 | 9.7 | 0.00 | 0.00 | 0.00 | 57 | 813.4 |
| 20260505221227 | 8 | 304 | 8.0 | 9.7 | 0.00 | 0.00 | 0.00 | 57 | 813.4 |
| 20260505221117 | 8 | 307 | 9.7 | 11.3 | 0.00 | 0.00 | 0.00 | 57 | 813.4 |
| 20260505221007 | 8 | 300 | 8.0 | 9.7 | 0.00 | 0.00 | 0.00 | 58 | 813.4 |
| 20260505220857 | 8 | 293 | 9.7 | 9.7 | 0.00 | 0.00 | 0.00 | 58 | 813.4 |
| 20260505220747 | 8 | 308 | 9.7 | 12.9 | 0.00 | 0.00 | 0.00 | 57 | 813.4 |
| 20260505220527 | 8 | 305 | 8.0 | 9.7 | 0.00 | 0.00 | 0.00 | 58 | 813.4 |
| 20260505220417 | 8 | 292 | 6.4 | 8.0 | 0.00 | 0.00 | 0.00 | 58 | 813.4 |
| 20260505220157 | 8 | 284 | 6.4 | 8.0 | 0.00 | 0.00 | 0.00 | 58 | 813.4 |
| 20260505220047 | 8 | 283 | 8.0 | 9.7 | 0.00 | 0.00 | 0.00 | 58 | 813.4 |
| 20260505215937 | 8 | 282 | 8.0 | 9.7 | 0.00 | 0.00 | 0.00 | 57 | 813.4 |
| 20260505215717 | 8 | 302 | 11.3 | 12.9 | 0.00 | 0.00 | 0.00 | 58 | 813.4 |
| 20260505215607 | 8 | 293 | 11.3 | 12.9 | 0.00 | 0.00 | 0.00 | 58 | 813.4 |
| 20260505215457 | 8 | 289 | 11.3 | 12.9 | 0.00 | 0.00 | 0.00 | 58 | 813.4 |
| 20260505215347 | 8 | 285 | 11.3 | 12.9 | 0.00 | 0.00 | 0.00 | 58 | 813.4 |
| 20260505215237 | 8 | 283 | 12.9 | 12.9 | 0.00 | 0.00 | 0.00 | 59 | 813.4 |
| 20260505215127 | 8 | 284 | 12.9 | 12.9 | 0.00 | 0.00 | 0.00 | 60 | 813.4 |
| 20260505215017 | 8 | 281 | 11.3 | 12.9 | 0.00 | 0.00 | 0.00 | 60 | 813.4 |
| 20260505214907 | 8 | 282 | 12.9 | 14.5 | 0.00 | 0.00 | 0.00 | 61 | 813.4 |
| 20260505214757 | 8 | 280 | 11.3 | 12.9 | 0.00 | 0.00 | 0.00 | 61 | 813.4 |
| 20260505214647 | 8 | 278 | 9.7 | 12.9 | 0.00 | 0.00 | 0.00 | 62 | 813.4 |
| 20260505214537 | 8 | 277 | 11.3 | 14.5 | 0.00 | 0.00 | 0.00 | 62 | 813.5 |
| 20260505214427 | 8 | 272 | 9.7 | 11.3 | 0.00 | 0.00 | 0.00 | 62 | 813.5 |
| 20260505214317 | 8 | 269 | 9.7 | 11.3 | 0.00 | 0.00 | 0.00 | 62 | 813.5 |
| 20260505214207 | 8 | 270 | 9.7 | 12.9 | 0.00 | 0.00 | 0.00 | 62 | 813.5 |
| 20260505214057 | 8 | 269 | 11.3 | 12.9 | 0.00 | 0.00 | 0.00 | 63 | 813.4 |
| 20260505213947 | 8 | 269 | 11.3 | 14.5 | 0.00 | 0.00 | 0.00 | 63 | 813.5 |
| 20260505213837 | 8 | 277 | 9.7 | 12.9 | 0.00 | 0.00 | 0.00 | 63 | 813.5 |
| 20260505213617 | 8 | 259 | 12.9 | 14.5 | 0.00 | 0.00 | 0.00 | 63 | 813.4 |
| 20260505213507 | 8 | 266 | 9.7 | 12.9 | 0.00 | 0.00 | 0.00 | 63 | 813.5 |
| 20260505213137 | 8 | 262 | 8.0 | 9.7 | 0.00 | 0.00 | 0.00 | 62 | 813.5 |
| 20260505213027 | 8 | 264 | 11.3 | 14.5 | 0.00 | 0.00 | 0.00 | 62 | 813.5 |
| 20260505212807 | 8 | 255 | 9.7 | 9.7 | 0.00 | 0.00 | 0.00 | 62 | 813.4 |
| 20260505212657 | 8 | 261 | 11.3 | 12.9 | 0.00 | 0.00 | 0.00 | 62 | 813.4 |
| 20260505212547 | 8 | 254 | 9.7 | 14.5 | 0.00 | 0.00 | 0.00 | 63 | 813.5 |
| 20260505212437 | 8 | 242 | 8.0 | 8.0 | 0.00 | 0.00 | 0.00 | 63 | 813.5 |
| 20260505212327 | 8 | 247 | 8.0 | 9.7 | 0.00 | 0.00 | 0.00 | 63 | 813.5 |
| 20260505212217 | 8 | 240 | 6.4 | 8.0 | 0.00 | 0.00 | 0.00 | 63 | 813.5 |
| 20260505212107 | 8 | 239 | 6.4 | 6.4 | 0.00 | 0.00 | 0.00 | 63 | 813.5 |
| 20260505211957 | 8 | 224 | 6.4 | 6.4 | 0.00 | 0.00 | 0.00 | 63 | 813.5 |
| 20260505211847 | 8 | 205 | 6.4 | 6.4 | 0.00 | 0.00 | 0.00 | 63 | 813.5 |
| 20260505211737 | 8 | 220 | 6.4 | 6.4 | 0.00 | 0.00 | 0.00 | 63 | 813.5 |
| 20260505211627 | 8 | 214 | 4.8 | 4.8 | 0.00 | 0.00 | 0.00 | 63 | 813.5 |
| 20260505211517 | 8 | 211 | 4.8 | 4.8 | 0.00 | 0.00 | 0.00 | 63 | 813.5 |
| 20260505211407 | 8 | 217 | 6.4 | 6.4 | 0.00 | 0.00 | 0.00 | 64 | 813.5 |
| 20260505211257 | 8 | 234 | 6.4 | 6.4 | 0.00 | 0.00 | 0.00 | 64 | 813.5 |
| 20260505211147 | 8 | 228 | 6.4 | 6.4 | 0.00 | 0.00 | 0.00 | 63 | 813.5 |
| 20260505210817 | 8 | 211 | 6.4 | 8.0 | 0.00 | 0.00 | 0.00 | 63 | 813.5 |
| 20260505210707 | 8 | 201 | 6.4 | 6.4 | 0.00 | 0.00 | 0.00 | 62 | 813.5 |
| 20260505210337 | 8 | 211 | 4.8 | 4.8 | 0.00 | 0.00 | 0.00 | 61 | 813.5 |
| 20260505210227 | 8 | 266 | 3.2 | 4.8 | 0.00 | 0.00 | 0.00 | 56 | 813.5 |
| 20260505210117 | 8 | 289 | 3.2 | 3.2 | 0.00 | 0.00 | 0.00 | 56 | 813.5 |
| 20260505210007 | 8 | 308 | 3.2 | 3.2 | 0.00 | 0.00 | 0.00 | 56 | 813.5 |
| 20260505205857 | 8 | 305 | 4.8 | 6.4 | 0.00 | 0.00 | 0.00 | 56 | 813.5 |
| 20260505205747 | 8 | 296 | 3.2 | 6.4 | 0.00 | 0.00 | 0.00 | 56 | 813.5 |
| 20260505205637 | 8 | 310 | 4.8 | 8.0 | 0.00 | 0.00 | 0.00 | 55 | 813.5 |
| 20260505205527 | 8 | 264 | 4.8 | 8.0 | 0.00 | 0.00 | 0.00 | 56 | 813.5 |
| 20260505205417 | 8 | 281 | 3.2 | 6.4 | 0.00 | 0.00 | 0.00 | 57 | 813.5 |
| 20260505205307 | 8 | 255 | 6.4 | 8.0 | 0.00 | 0.00 | 0.00 | 58 | 813.7 |
| 20260505205157 | 8 | 257 | 4.8 | 9.7 | 0.00 | 0.00 | 0.00 | 57 | 813.5 |
| 20260505205047 | 8 | 310 | 3.2 | 6.4 | 0.00 | 0.00 | 0.00 | 57 | 813.5 |
| 20260505204827 | 8 | 261 | 4.8 | 8.0 | 0.00 | 0.00 | 0.00 | 62 | 813.5 |
| 20260505204717 | 8 | 212 | 8.0 | 8.0 | 0.00 | 0.00 | 0.00 | 63 | 813.7 |
| 20260505204457 | 8 | 199 | 6.4 | 8.0 | 0.00 | 0.00 | 0.00 | 63 | 813.7 |
| 20260505204347 | 8 | 188 | 8.0 | 8.0 | 0.00 | 0.00 | 0.00 | 64 | 813.7 |
| 20260505204237 | 8 | 197 | 8.0 | 9.7 | 0.00 | 0.00 | 0.00 | 65 | 813.5 |
| 20260505204127 | 8 | 196 | 8.0 | 8.0 | 0.00 | 0.00 | 0.00 | 66 | 813.5 |
| 20260505204017 | 8 | 197 | 8.0 | 9.7 | 0.00 | 0.00 | 0.00 | 66 | 813.5 |
| 20260505203757 | 8 | 176 | 8.0 | 9.7 | 0.00 | 0.00 | 0.00 | 64 | 813.7 |
| 20260505203647 | 8 | 192 | 9.7 | 11.3 | 0.00 | 0.00 | 0.00 | 64 | 813.7 |
| 20260505203427 | 8 | 195 | 9.7 | 11.3 | 0.00 | 0.00 | 0.00 | 65 | 813.7 |
| 20260505203317 | 8 | 206 | 9.7 | 11.3 | 0.00 | 0.00 | 0.00 | 63 | 813.7 |
| 20260505203207 | 8 | 200 | 9.7 | 11.3 | 0.00 | 0.00 | 0.00 | 62 | 813.7 |
| 20260505203057 | 8 | 206 | 9.7 | 9.7 | 0.00 | 0.00 | 0.00 | 63 | 813.7 |
| 20260505202947 | 8 | 207 | 9.7 | 11.3 | 0.00 | 0.00 | 0.00 | 62 | 813.8 |
| 20260505202837 | 8 | 209 | 9.7 | 11.3 | 0.00 | 0.00 | 0.00 | 62 | 813.8 |
| 20260505202727 | 8 | 202 | 9.7 | 9.7 | 0.00 | 0.00 | 0.00 | 61 | 813.8 |
| 20260505202617 | 8 | 203 | 9.7 | 11.3 | 0.00 | 0.00 | 0.00 | 59 | 813.8 |
| 20260505202507 | 8 | 200 | 9.7 | 9.7 | 0.00 | 0.00 | 0.00 | 57 | 813.7 |
| 20260505202357 | 8 | 199 | 8.0 | 9.7 | 0.00 | 0.00 | 0.00 | 57 | 813.8 |
| 20260505202247 | 8 | 204 | 9.7 | 9.7 | 0.00 | 0.00 | 0.00 | 56 | 813.7 |
| 20260505202137 | 8 | 204 | 8.0 | 9.7 | 0.00 | 0.00 | 0.00 | 56 | 813.7 |
| 20260505202027 | 8 | 207 | 9.7 | 9.7 | 0.00 | 0.00 | 0.00 | 56 | 813.7 |
| 20260505201807 | 8 | 217 | 9.7 | 11.3 | 0.00 | 0.00 | 0.00 | 55 | 813.7 |
| 20260505201657 | 8 | 217 | 8.0 | 9.7 | 0.00 | 0.00 | 0.00 | 55 | 813.8 |
| 20260505201547 | 8 | 219 | 8.0 | 9.7 | 0.00 | 0.00 | 0.00 | 54 | 813.7 |
| 20260505201437 | 8 | 221 | 8.0 | 9.7 | 0.00 | 0.00 | 0.00 | 54 | 813.7 |
| 20260505201107 | 8 | 243 | 8.0 | 9.7 | 0.00 | 0.00 | 0.00 | 57 | 813.7 |
| 20260505200957 | 8 | 229 | 6.4 | 8.0 | 0.00 | 0.00 | 0.00 | 58 | 813.7 |
| 20260505200737 | 8 | 215 | 8.0 | 8.0 | 0.00 | 0.00 | 0.00 | 58 | 813.5 |
| 20260505200627 | 8 | 224 | 8.0 | 9.7 | 0.00 | 0.00 | 0.00 | 58 | 813.7 |
| 20260505200517 | 8 | 234 | 8.0 | 8.0 | 0.00 | 0.00 | 0.00 | 57 | 813.5 |
| 20260505200407 | 8 | 238 | 9.7 | 9.7 | 0.00 | 0.00 | 0.00 | 58 | 813.7 |
| 20260505200257 | 8 | 243 | 9.7 | 9.7 | 0.00 | 0.00 | 0.00 | 59 | 813.7 |
| 20260505200147 | 8 | 231 | 8.0 | 9.7 | 0.00 | 0.00 | 0.00 | 59 | 813.7 |
| 20260505200037 | 8 | 242 | 8.0 | 8.0 | 0.00 | 0.00 | 0.00 | 60 | 813.5 |
| 20260505195927 | 8 | 246 | 6.4 | 6.4 | 0.00 | 0.00 | 0.00 | 59 | 813.5 |
| 20260505195816 | 8 | 241 | 6.4 | 6.4 | 0.00 | 0.00 | 0.00 | 59 | 813.5 |
| 20260505195707 | 8 | 237 | 6.4 | 6.4 | 0.00 | 0.00 | 0.00 | 59 | 813.7 |
| 20260505195557 | 8 | 247 | 6.4 | 6.4 | 0.00 | 0.00 | 0.00 | 59 | 813.5 |
| 20260505195337 | 8 | 254 | 6.4 | 6.4 | 0.00 | 0.00 | 0.00 | 59 | 813.5 |
| 20260505195116 | 8 | 260 | 6.4 | 8.0 | 0.00 | 0.00 | 0.00 | 59 | 813.5 |
| 20260505195007 | 8 | 264 | 6.4 | 8.0 | 0.00 | 0.00 | 0.00 | 59 | 813.7 |
| 20260505194856 | 8 | 261 | 8.0 | 8.0 | 0.00 | 0.00 | 0.00 | 59 | 813.5 |
| 20260505194637 | 8 | 268 | 8.0 | 9.7 | 0.00 | 0.00 | 0.00 | 60 | 813.7 |
| 20260505194527 | 8 | 264 | 8.0 | 9.7 | 0.00 | 0.00 | 0.00 | 61 | 813.7 |
| 20260505194417 | 8 | 267 | 8.0 | 9.7 | 0.00 | 0.00 | 0.00 | 60 | 813.5 |
| 20260505194307 | 8 | 264 | 8.0 | 9.7 | 0.00 | 0.00 | 0.00 | 60 | 813.7 |
| 20260505194157 | 8 | 264 | 6.4 | 8.0 | 0.00 | 0.00 | 0.00 | 60 | 813.5 |
| 20260505193937 | 8 | 261 | 8.0 | 8.0 | 0.00 | 0.00 | 0.00 | 60 | 813.5 |
| 20260505193827 | 8 | 264 | 6.4 | 6.4 | 0.00 | 0.00 | 0.00 | 60 | 813.7 |
| 20260505193717 | 8 | 267 | 6.4 | 6.4 | 0.00 | 0.00 | 0.00 | 60 | 813.7 |
| 20260505193607 | 8 | 264 | 6.4 | 8.0 | 0.00 | 0.00 | 0.00 | 59 | 813.5 |
| 20260505193456 | 8 | 267 | 6.4 | 8.0 | 0.00 | 0.00 | 0.00 | 59 | 813.5 |
| 20260505193347 | 8 | 271 | 6.4 | 6.4 | 0.00 | 0.00 | 0.00 | 58 | 813.7 |
| 20260505193237 | 8 | 272 | 4.8 | 6.4 | 0.00 | 0.00 | 0.00 | 58 | 813.7 |
| 20260505193127 | 8 | 274 | 6.4 | 6.4 | 0.00 | 0.00 | 0.00 | 58 | 813.7 |
| 20260505192906 | 8 | 256 | 6.4 | 6.4 | 0.00 | 0.00 | 0.00 | 58 | 813.7 |
| 20260505192757 | 8 | 248 | 6.4 | 6.4 | 0.00 | 0.00 | 0.00 | 56 | 813.7 |
| 20260505192647 | 8 | 238 | 6.4 | 6.4 | 0.00 | 0.00 | 0.00 | 57 | 813.7 |
| 20260505192537 | 8 | 246 | 4.8 | 6.4 | 0.00 | 0.00 | 0.00 | 57 | 813.7 |
| 20260505192427 | 8 | 266 | 6.4 | 8.0 | 0.00 | 0.00 | 0.00 | 58 | 813.7 |
| 20260505192207 | 8 | 268 | 6.4 | 8.0 | 0.00 | 0.00 | 0.00 | 58 | 813.7 |
| 20260505192057 | 8 | 272 | 8.0 | 8.0 | 0.00 | 0.00 | 0.00 | 58 | 813.7 |
| 20260505191947 | 8 | 271 | 6.4 | 8.0 | 0.00 | 0.00 | 0.00 | 58 | 813.7 |
| 20260505191837 | 8 | 265 | 8.0 | 9.7 | 0.00 | 0.00 | 0.00 | 58 | 813.7 |
| 20260505191727 | 8 | 267 | 8.0 | 9.7 | 0.00 | 0.00 | 0.00 | 56 | 813.7 |
| 20260505191507 | 8 | 259 | 8.0 | 11.3 | 0.00 | 0.00 | 0.00 | 56 | 813.7 |
| 20260505191357 | 8 | 260 | 9.7 | 11.3 | 0.00 | 0.00 | 0.00 | 56 | 813.7 |
| 20260505191247 | 8 | 259 | 11.3 | 12.9 | 0.00 | 0.00 | 0.00 | 56 | 813.5 |
| 20260505191137 | 8 | 262 | 11.3 | 11.3 | 0.00 | 0.00 | 0.00 | 56 | 813.7 |
| 20260505191027 | 7 | 260 | 9.7 | 11.3 | 0.00 | 0.00 | 0.00 | 57 | 813.5 |
| 20260505190916 | 7 | 263 | 11.3 | 11.3 | 0.00 | 0.00 | 0.00 | 57 | 813.7 |
| 20260505190807 | 7 | 263 | 11.3 | 12.9 | 0.00 | 0.00 | 0.00 | 58 | 813.5 |
| 20260505190657 | 7 | 262 | 11.3 | 12.9 | 0.00 | 0.00 | 0.00 | 58 | 813.5 |
| 20260505190548 | 7 | 261 | 11.3 | 12.9 | 0.00 | 0.00 | 0.00 | 58 | 813.5 |
| 20260505190437 | 7 | 261 | 12.9 | 14.5 | 0.00 | 0.00 | 0.00 | 59 | 813.5 |
| 20260505190329 | 7 | 259 | 12.9 | 14.5 | 0.00 | 0.00 | 0.00 | 59 | 813.5 |
| 20260505190107 | 7 | 254 | 12.9 | 16.1 | 0.00 | 0.00 | 0.00 | 56 | 813.5 |
| 20260505185957 | 7 | 259 | 14.5 | 16.1 | 0.00 | 0.00 | 0.00 | 56 | 813.5 |
| 20260505185848 | 8 | 255 | 12.9 | 16.1 | 0.00 | 0.00 | 0.00 | 56 | 813.5 |
| 20260505185738 | 7 | 255 | 12.9 | 14.5 | 0.00 | 0.00 | 0.00 | 56 | 813.5 |
| 20260505185627 | 7 | 257 | 16.1 | 16.1 | 0.00 | 0.00 | 0.00 | 58 | 813.5 |
| 20260505185517 | 7 | 259 | 16.1 | 17.7 | 0.00 | 0.00 | 0.00 | 57 | 813.5 |
| 20260505185407 | 7 | 257 | 14.5 | 17.7 | 0.00 | 0.00 | 0.00 | 57 | 813.5 |
| 20260505185257 | 7 | 254 | 12.9 | 16.1 | 0.00 | 0.00 | 0.00 | 57 | 813.5 |
| 20260505185147 | 7 | 260 | 12.9 | 16.1 | 0.00 | 0.00 | 0.00 | 57 | 813.5 |
| 20260505185036 | 7 | 260 | 14.5 | 16.1 | 0.00 | 0.00 | 0.00 | 57 | 813.4 |
| 20260505184817 | 7 | 256 | 14.5 | 16.1 | 0.00 | 0.00 | 0.00 | 56 | 813.5 |
| 20260505184707 | 7 | 254 | 14.5 | 16.1 | 0.00 | 0.00 | 0.00 | 56 | 813.4 |
| 20260505184557 | 7 | 256 | 16.1 | 17.7 | 0.00 | 0.00 | 0.00 | 56 | 813.5 |
| 20260505184447 | 7 | 251 | 14.5 | 17.7 | 0.00 | 0.00 | 0.00 | 56 | 813.5 |
| 20260505184337 | 7 | 253 | 12.9 | 14.5 | 0.00 | 0.00 | 0.00 | 56 | 813.5 |
| 20260505184227 | 7 | 250 | 12.9 | 14.5 | 0.00 | 0.00 | 0.00 | 57 | 813.4 |
| 20260505184007 | 7 | 257 | 9.7 | 12.9 | 0.00 | 0.00 | 0.00 | 60 | 813.5 |
| 20260505183857 | 7 | 242 | 11.3 | 12.9 | 0.00 | 0.00 | 0.00 | 58 | 813.5 |
| 20260505183746 | 7 | 241 | 12.9 | 14.5 | 0.00 | 0.00 | 0.00 | 56 | 813.4 |
| 20260505183637 | 7 | 247 | 12.9 | 14.5 | 0.00 | 0.00 | 0.00 | 57 | 813.5 |
| 20260505183527 | 7 | 239 | 11.3 | 12.9 | 0.00 | 0.00 | 0.00 | 56 | 813.5 |
| 20260505183417 | 7 | 250 | 12.9 | 12.9 | 0.00 | 0.00 | 0.00 | 56 | 813.5 |
| 20260505183307 | 7 | 239 | 11.3 | 12.9 | 0.00 | 0.00 | 0.00 | 56 | 813.5 |
| 20260505183157 | 7 | 240 | 12.9 | 14.5 | 0.00 | 0.00 | 0.00 | 56 | 813.5 |
| 20260505183047 | 7 | 233 | 11.3 | 12.9 | 0.00 | 0.00 | 0.00 | 56 | 813.5 |
| 20260505182827 | 7 | 233 | 9.7 | 11.3 | 0.00 | 0.00 | 0.00 | 56 | 813.5 |
| 20260505182716 | 7 | 233 | 11.3 | 12.9 | 0.00 | 0.00 | 0.00 | 58 | 813.5 |
| 20260505182606 | 7 | 223 | 9.7 | 11.3 | 0.00 | 0.00 | 0.00 | 58 | 813.5 |
| 20260505182456 | 7 | 228 | 9.7 | 9.7 | 0.00 | 0.00 | 0.00 | 60 | 813.4 |
| 20260505182237 | 7 | 226 | 11.3 | 12.9 | 0.00 | 0.00 | 0.00 | 60 | 813.4 |
| 20260505182126 | 8 | 222 | 11.3 | 12.9 | 0.00 | 0.00 | 0.00 | 61 | 813.4 |
| 20260505182017 | 8 | 213 | 11.3 | 12.9 | 0.00 | 0.00 | 0.00 | 61 | 813.5 |
| 20260505181906 | 8 | 227 | 9.7 | 11.3 | 0.00 | 0.00 | 0.00 | 62 | 813.4 |
| 20260505181647 | 8 | 263 | 11.3 | 14.5 | 0.00 | 0.00 | 0.00 | 56 | 813.4 |
| 20260505181537 | 8 | 252 | 9.7 | 12.9 | 0.00 | 0.00 | 0.00 | 56 | 813.4 |
| 20260505181427 | 8 | 267 | 9.7 | 11.3 | 0.00 | 0.00 | 0.00 | 56 | 813.5 |
| 20260505181317 | 8 | 284 | 12.9 | 16.1 | 0.00 | 0.00 | 0.00 | 56 | 813.4 |
| 20260505180949 | 8 | 281 | 11.3 | 12.9 | 0.00 | 0.00 | 0.00 | 57 | 813.4 |
| 20260505180617 | 8 | 256 | 8.0 | 11.3 | 0.00 | 0.00 | 0.00 | 61 | 813.4 |
| 20260505180507 | 8 | 222 | 6.4 | 8.0 | 0.00 | 0.00 | 0.00 | 61 | 813.5 |
| 20260505180356 | 8 | 243 | 6.4 | 11.3 | 0.00 | 0.00 | 0.00 | 59 | 813.4 |
| 20260505180249 | 8 | 278 | 6.4 | 8.0 | 0.00 | 0.00 | 0.00 | 58 | 813.4 |
| 20260505180137 | 8 | 303 | 6.4 | 8.0 | 0.00 | 0.00 | 0.00 | 58 | 813.4 |
| 20260505180027 | 7 | 301 | 9.7 | 12.9 | 0.00 | 0.00 | 0.00 | 58 | 813.4 |
| 20260505175920 | 7 | 291 | 9.7 | 11.3 | 0.00 | 0.00 | 0.00 | 59 | 813.4 |
| 20260505175806 | 7 | 289 | 9.7 | 11.3 | 0.00 | 0.00 | 0.00 | 60 | 813.4 |
| 20260505175656 | 7 | 289 | 8.0 | 9.7 | 0.00 | 0.00 | 0.00 | 61 | 813.4 |
| 20260505175437 | 7 | 202 | 8.0 | 9.7 | 0.00 | 0.00 | 0.00 | 70 | 813.4 |
| 20260505175326 | 7 | 205 | 9.7 | 11.3 | 0.00 | 0.00 | 0.00 | 70 | 813.4 |
| 20260505175217 | 7 | 221 | 11.3 | 12.9 | 0.00 | 0.00 | 0.00 | 70 | 813.4 |
| 20260505175106 | 7 | 234 | 11.3 | 12.9 | 0.00 | 0.00 | 0.00 | 68 | 813.4 |
| 20260505174956 | 7 | 233 | 9.7 | 11.3 | 0.00 | 0.00 | 0.00 | 64 | 813.4 |
| 20260505174847 | 7 | 197 | 8.0 | 9.7 | 0.00 | 0.00 | 0.00 | 63 | 813.4 |
| 20260505174738 | 7 | 185 | 8.0 | 9.7 | 0.00 | 0.00 | 0.00 | 64 | 813.4 |
| 20260505174627 | 7 | 183 | 6.4 | 9.7 | 0.00 | 0.00 | 0.00 | 65 | 813.3 |
| 20260505174517 | 7 | 198 | 6.4 | 8.0 | 0.00 | 0.00 | 0.00 | 64 | 813.3 |
| 20260505174406 | 7 | 199 | 8.0 | 9.7 | 0.00 | 0.00 | 0.00 | 65 | 813.3 |
| 20260505174257 | 7 | 208 | 8.0 | 9.7 | 0.00 | 0.00 | 0.00 | 66 | 813.3 |
| 20260505174147 | 6 | 190 | 9.7 | 11.3 | 0.00 | 0.00 | 0.00 | 65 | 813.4 |
| 20260505173817 | 6 | 207 | 9.7 | 9.7 | 0.00 | 0.00 | 0.00 | 67 | 813.4 |
| 20260505173707 | 6 | 200 | 9.7 | 11.3 | 0.00 | 0.00 | 0.00 | 68 | 813.4 |
| 20260505173556 | 6 | 219 | 9.7 | 11.3 | 0.00 | 0.00 | 0.00 | 67 | 813.4 |
| 20260505173447 | 6 | 228 | 9.7 | 12.9 | 0.00 | 0.00 | 0.00 | 68 | 813.4 |
| 20260505173337 | 6 | 225 | 9.7 | 11.3 | 0.00 | 0.00 | 0.00 | 67 | 813.4 |
| 20260505173227 | 6 | 233 | 9.7 | 12.9 | 0.00 | 0.00 | 0.00 | 68 | 813.4 |
| 20260505173116 | 6 | 238 | 11.3 | 14.5 | 0.00 | 0.00 | 0.00 | 68 | 813.4 |
| 20260505173006 | 6 | 243 | 9.7 | 12.9 | 0.00 | 0.00 | 0.00 | 65 | 813.3 |
| 20260505172857 | 6 | 238 | 11.3 | 12.9 | 0.00 | 0.00 | 0.00 | 66 | 813.4 |
| 20260505172747 | 6 | 262 | 11.3 | 14.5 | 0.00 | 0.00 | 0.00 | 66 | 813.4 |
| 20260505172637 | 6 | 267 | 11.3 | 14.5 | 0.00 | 0.00 | 0.00 | 69 | 813.4 |
| 20260505172307 | 6 | 243 | 9.7 | 12.9 | 0.00 | 0.00 | 0.00 | 66 | 813.3 |
| 20260505172157 | 6 | 254 | 14.5 | 19.3 | 0.00 | 0.00 | 0.00 | 66 | 813.3 |
| 20260505172046 | 7 | 253 | 16.1 | 20.9 | 0.00 | 0.00 | 0.00 | 72 | 813.3 |
| 20260505171936 | 7 | 247 | 9.7 | 12.9 | 0.00 | 0.00 | 0.00 | 72 | 813.3 |
| 20260505171827 | 6 | 247 | 9.7 | 12.9 | 0.00 | 0.00 | 0.00 | 69 | 813.4 |
| 20260505171717 | 6 | 251 | 8.0 | 9.7 | 0.00 | 0.00 | 0.00 | 70 | 813.4 |
| 20260505171457 | 6 | 209 | 8.0 | 22.5 | 0.00 | 0.00 | 0.00 | 68 | 813.4 |
| 20260505171347 | 6 | 185 | 9.7 | 19.3 | 0.00 | 0.00 | 0.00 | 66 | 813.4 |
| 20260505171236 | 6 | 153 | 16.1 | 25.7 | 0.00 | 0.00 | 0.00 | 66 | 813.4 |
| 20260505171126 | 6 | 143 | 29.0 | 40.2 | 0.00 | 0.00 | 0.00 | 74 | 813.4 |
| 20260505171017 | 6 | 141 | 35.4 | 146.5 | 0.03 | 0.00 | 0.00 | 77 | 813.4 |
| 20260505170907 | 6 | 139 | 20.9 | 33.8 | 0.03 | 0.00 | 0.00 | 76 | 813.5 |
| 20260505170756 | 6 | 87 | 27.4 | 33.8 | 0.03 | 0.00 | 0.00 | 79 | 813.7 |
| 20260505170647 | 6 | 66 | 30.6 | 37.0 | 0.00 | 0.00 | 0.00 | 80 | 813.5 |
| 20260505170537 | 6 | 71 | 33.8 | 40.2 | 0.00 | 0.00 | 0.00 | 84 | 813.4 |
| 20260505170427 | 7 | 81 | 25.7 | 33.8 | 0.00 | 0.00 | 0.00 | 82 | 813.5 |
| 20260505170317 | 7 | 99 | 19.3 | 25.7 | 0.00 | 0.00 | 0.00 | 80 | 813.5 |
| 20260505170206 | 7 | 134 | 17.7 | 22.5 | 0.00 | 0.00 | 0.00 | 78 | 813.5 |
| 20260505170057 | 7 | 142 | 19.3 | 24.1 | 0.00 | 0.00 | 0.00 | 78 | 813.4 |
| 20260505165946 | 7 | 146 | 22.5 | 25.7 | 0.00 | 0.00 | 0.00 | 80 | 813.4 |
| 20260505165837 | 7 | 143 | 22.5 | 25.7 | 0.00 | 0.00 | 0.00 | 82 | 813.4 |
| 20260505165726 | 7 | 139 | 19.3 | 24.1 | 0.00 | 0.00 | 0.00 | 79 | 813.4 |
| 20260505165617 | 8 | 143 | 16.1 | 19.3 | 0.00 | 0.00 | 0.00 | 79 | 813.4 |
| 20260505165507 | 8 | 187 | 4.8 | 9.7 | 0.00 | 0.00 | 0.00 | 78 | 813.4 |
| 20260505165357 | 8 | 270 | 4.8 | 6.4 | 0.00 | 0.00 | 0.00 | 80 | 813.4 |
| 20260505165247 | 8 | 274 | 6.4 | 9.7 | 0.00 | 0.00 | 0.00 | 80 | 813.4 |
| 20260505165026 | 7 | 244 | 8.0 | 11.3 | 0.00 | 0.00 | 0.00 | 79 | 813.4 |
| 20260505164916 | 7 | 238 | 8.0 | 11.3 | 0.00 | 0.00 | 0.00 | 78 | 813.3 |
| 20260505164807 | 7 | 237 | 9.7 | 12.9 | 0.00 | 0.00 | 0.00 | 84 | 813.4 |
| 20260505164657 | 7 | 240 | 9.7 | 11.3 | 0.00 | 0.00 | 0.00 | 84 | 813.4 |
| 20260505164546 | 7 | 238 | 9.7 | 11.3 | 0.00 | 0.00 | 0.00 | 87 | 813.4 |
| 20260505164437 | 7 | 247 | 9.7 | 11.3 | 0.00 | 0.00 | 0.00 | 86 | 813.3 |
| 20260505164327 | 7 | 245 | 9.7 | 12.9 | 0.00 | 0.00 | 0.00 | 83 | 813.3 |
| 20260505164216 | 7 | 244 | 11.3 | 14.5 | 0.00 | 0.00 | 0.00 | 87 | 813.3 |
| 20260505164106 | 7 | 242 | 11.3 | 14.5 | 0.00 | 0.00 | 0.00 | 87 | 813.3 |
| 20260505163956 | 7 | 242 | 9.7 | 12.9 | 0.00 | 0.00 | 0.00 | 87 | 813.3 |
| 20260505163847 | 7 | 244 | 11.3 | 12.9 | 0.00 | 0.00 | 0.00 | 86 | 813.3 |
| 20260505163736 | 7 | 247 | 11.3 | 16.1 | 0.00 | 0.00 | 0.00 | 88 | 813.3 |
| 20260505163627 | 7 | 249 | 9.7 | 14.5 | 0.00 | 0.00 | 0.00 | 89 | 813.3 |
| 20260505163517 | 7 | 255 | 9.7 | 12.9 | 0.00 | 0.00 | 0.00 | 88 | 813.3 |
| 20260505163407 | 7 | 261 | 11.3 | 16.1 | 0.00 | 0.00 | 0.00 | 90 | 813.3 |
| 20260505163146 | 7 | 254 | 11.3 | 16.1 | 0.00 | 0.00 | 0.00 | 87 | 813.3 |
| 20260505163036 | 7 | 246 | 12.9 | 16.1 | 0.00 | 0.00 | 0.00 | 87 | 813.3 |
| 20260505162926 | 7 | 236 | 11.3 | 14.5 | 0.00 | 0.00 | 0.00 | 86 | 813.1 |
| 20260505162818 | 7 | 241 | 11.3 | 16.1 | 0.00 | 0.00 | 0.00 | 90 | 813.1 |
| 20260505162707 | 7 | 259 | 11.3 | 14.5 | 0.00 | 0.00 | 0.00 | 90 | 813.3 |
| 20260505162557 | 7 | 270 | 9.7 | 14.5 | 0.00 | 0.00 | 0.00 | 90 | 813.3 |
| 20260505162447 | 7 | 243 | 9.7 | 14.5 | 0.00 | 0.00 | 0.00 | 85 | 813.3 |
| 20260505162343 | 7 | 223 | 9.7 | 12.9 | 0.00 | 0.00 | 0.00 | 84 | 813.3 |
| 20260505162229 | 7 | 230 | 9.7 | 14.5 | 0.00 | 0.00 | 0.00 | 88 | 813.3 |
| 20260505162117 | 7 | 241 | 9.7 | 12.9 | 0.00 | 0.00 | 0.00 | 89 | 813.3 |
| 20260505162006 | 7 | 248 | 9.7 | 12.9 | 0.00 | 0.00 | 0.00 | 89 | 813.3 |
| 20260505161856 | 7 | 244 | 11.3 | 16.1 | 0.00 | 0.00 | 0.00 | 91 | 813.3 |
| 20260505161746 | 7 | 250 | 12.9 | 17.7 | 0.00 | 0.00 | 0.00 | 90 | 813.3 |
| 20260505161636 | 7 | 245 | 12.9 | 16.1 | 0.00 | 0.00 | 0.00 | 90 | 813.3 |
| 20260505161526 | 7 | 243 | 11.3 | 16.1 | 0.00 | 0.00 | 0.00 | 88 | 813.3 |
| 20260505161417 | 7 | 234 | 12.9 | 19.3 | 0.00 | 0.00 | 0.00 | 90 | 813.3 |
| 20260505161306 | 7 | 253 | 14.5 | 19.3 | 0.00 | 0.00 | 0.00 | 91 | 813.3 |
| 20260505161156 | 7 | 248 | 14.5 | 19.3 | 0.00 | 0.00 | 0.00 | 91 | 813.3 |
| 20260505161046 | 7 | 245 | 14.5 | 19.3 | 0.00 | 0.00 | 0.00 | 90 | 813.1 |
| 20260505160937 | 7 | 242 | 12.9 | 20.9 | 0.00 | 0.00 | 0.00 | 89 | 813.1 |
| 20260505160606 | 7 | 258 | 9.7 | 17.7 | 0.00 | 0.00 | 0.00 | 89 | 813.3 |
| 20260505160456 | 7 | 246 | 11.3 | 16.1 | 0.00 | 0.00 | 0.00 | 90 | 813.3 |
| 20260505160347 | 7 | 246 | 12.9 | 17.7 | 0.00 | 0.00 | 0.00 | 88 | 813.1 |
| 20260505160236 | 7 | 249 | 12.9 | 17.7 | 0.00 | 0.00 | 0.00 | 89 | 813.3 |
| 20260505160126 | 7 | 249 | 12.9 | 16.1 | 0.00 | 0.00 | 0.00 | 90 | 813.3 |
| 20260505153326 | 7 | 141 | 1.6 | 6.4 | 0.00 | 0.00 | 0.00 | 65 | 813.4 |
| 20260505153216 | 7 | 123 | 6.4 | 8.0 | 0.00 | 0.00 | 0.00 | 66 | 813.3 |
| 20260505153107 | 7 | 152 | 8.0 | 11.3 | 0.00 | 0.00 | 0.00 | 66 | 813.3 |
| 20260505153012 | 7 | 138 | 6.4 | 9.7 | 0.00 | 0.00 | 0.00 | 67 | 813.3 |
| 20260505152743 | 7 | 173 | 3.2 | 4.8 | 0.00 | 0.00 | 0.00 | 67 | 813.4 |
| 20260505152629 | 7 | 206 | 3.2 | 4.8 | 0.00 | 0.00 | 0.00 | 68 | 813.4 |
| 20260505152517 | 7 | 211 | 6.4 | 8.0 | 0.00 | 0.00 | 0.00 | 67 | 813.4 |
| 20260505152410 | 7 | 243 | 6.4 | 11.3 | 0.00 | 0.00 | 0.00 | 62 | 813.4 |
| 20260505152257 | 7 | 264 | 8.0 | 16.1 | 0.00 | 0.00 | 0.00 | 60 | 813.5 |
| 20260505152147 | 7 | 273 | 6.4 | 9.7 | 0.00 | 0.00 | 0.00 | 60 | 813.5 |
| 20260505152037 | 7 | 296 | 8.0 | 12.9 | 0.00 | 0.00 | 0.00 | 59 | 813.7 |
| 20260505151926 | 7 | 309 | 11.3 | 162.5 | 0.00 | 0.00 | 0.00 | 58 | 813.8 |
| 20260505151817 | 7 | 338 | 69.2 | 238.2 | 0.03 | 0.00 | 0.00 | 58 | 813.8 |
| 20260505151556 | 7 | 2 | 20.9 | 40.2 | 0.00 | 0.00 | 0.00 | 68 | 813.7 |
| 20260505151350 | 8 | 248 | 35.4 | 228.5 | 0.00 | 0.00 | 0.00 | 77 | 813.8 |
| 20260505151227 | 8 | 261 | 8.0 | 12.9 | 0.00 | 0.00 | 0.00 | 75 | 813.8 |
| 20260505151118 | 8 | 192 | 14.5 | 24.1 | 0.00 | 0.00 | 0.00 | 76 | 813.8 |
| 20260505150856 | 8 | 177 | 12.9 | 19.3 | 0.00 | 0.00 | 0.00 | 76 | 813.8 |
| 20260505150746 | 8 | 173 | 27.4 | 160.9 | 0.00 | 0.00 | 0.00 | 76 | 813.7 |
| 20260505150417 | 8 | 238 | 6.4 | 12.9 | 0.00 | 0.00 | 0.00 | 77 | 813.5 |
| 20260505150156 | 8 | 260 | 9.7 | 16.1 | 0.00 | 0.00 | 0.00 | 76 | 813.4 |
| 20260505140339 | 11 | 229 | 8.0 | 11.3 | 0.00 | 0.00 | 0.00 | 64 | 813.7 |
| 20260505140226 | 11 | 259 | 9.7 | 19.3 | 0.00 | 0.00 | 0.00 | 69 | 813.7 |
| 20260505140116 | 11 | 274 | 12.9 | 19.3 | 0.00 | 0.00 | 0.00 | 68 | 813.7 |
| 20260505130256 | 9 | 205 | 6.4 | 11.3 | 0.00 | 0.00 | 0.00 | 71 | 814.1 |
| 20260505130146 | 9 | 257 | 4.8 | 12.9 | 0.00 | 0.00 | 0.00 | 71 | 814.2 |
| 20260505124856 | 11 | 239 | 6.4 | 19.3 | 0.00 | 0.00 | 0.00 | 62 | 813.9 |
| 20260505124746 | 11 | 294 | 16.1 | 25.7 | 0.00 | 0.00 | 0.00 | 63 | 813.9 |
| 20260505124636 | 11 | 320 | 16.1 | 22.5 | 0.00 | 0.00 | 0.00 | 61 | 813.9 |
| 20260505124527 | 11 | 313 | 14.5 | 20.9 | 0.00 | 0.00 | 0.00 | 62 | 814.2 |
| 20260505124417 | 11 | 330 | 11.3 | 16.1 | 0.00 | 0.00 | 0.00 | 59 | 814.2 |
| 20260505124307 | 11 | 346 | 9.7 | 19.3 | 0.00 | 0.00 | 0.00 | 54 | 814.2 |
| 20260505124156 | 11 | 350 | 6.4 | 12.9 | 0.00 | 0.00 | 0.00 | 48 | 814.2 |
| 20260505124046 | 11 | 18 | 6.4 | 12.9 | 0.00 | 0.00 | 0.00 | 42 | 814.2 |
| 20260505123828 | 11 | 80 | 9.7 | 16.1 | 0.00 | 0.00 | 0.00 | 45 | 814.2 |
| 20260505123717 | 11 | 28 | 8.0 | 12.9 | 0.00 | 0.00 | 0.00 | 45 | 814.2 |
| 20260505123606 | 11 | 22 | 9.7 | 19.3 | 0.00 | 0.00 | 0.00 | 40 | 814.2 |
| 20260505123456 | 11 | 40 | 16.1 | 20.9 | 0.00 | 0.00 | 0.00 | 42 | 814.2 |
| 20260505123347 | 10 | 47 | 14.5 | 20.9 | 0.00 | 0.00 | 0.00 | 45 | 814.2 |
| 20260505123236 | 10 | 17 | 16.1 | 24.1 | 0.00 | 0.00 | 0.00 | 43 | 814.2 |
| 20260505123126 | 10 | 8 | 19.3 | 30.6 | 0.00 | 0.00 | 0.00 | 43 | 814.1 |
| 20260505123016 | 11 | 18 | 16.1 | 29.0 | 0.00 | 0.00 | 0.00 | 43 | 814.1 |
| 20260505122906 | 11 | 32 | 17.7 | 30.6 | 0.00 | 0.00 | 0.00 | 46 | 813.9 |
| 20260505122756 | 10 | 14 | 12.9 | 17.7 | 0.00 | 0.00 | 0.00 | 44 | 814.1 |
| 20260505122538 | 10 | 354 | 14.5 | 25.7 | 0.00 | 0.00 | 0.00 | 45 | 814.1 |
| 20260505122426 | 11 | 347 | 24.1 | 35.4 | 0.00 | 0.00 | 0.00 | 44 | 813.8 |
| 20260505122318 | 11 | 26 | 19.3 | 33.8 | 0.00 | 0.00 | 0.00 | 43 | 814.1 |
| 20260505122056 | 11 | 51 | 14.5 | 27.4 | 0.00 | 0.00 | 0.00 | 42 | 814.1 |
| 20260505121836 | 11 | 21 | 9.7 | 19.3 | 0.00 | 0.00 | 0.00 | 42 | 814.1 |
| 20260505121616 | 10 | 10 | 16.1 | 27.4 | 0.00 | 0.00 | 0.00 | 42 | 813.9 |
| 20260505121356 | 10 | 64 | 14.5 | 20.9 | 0.00 | 0.00 | 0.00 | 44 | 814.2 |